| time (UTC) | temp F | wind direction | speed MPH | gust MPH | rain 1hr in | rain 24hr in | rain mn in | humidity % | barometer mb |
| 20260504050602 | 52 | 40 | 5.0 | 0.0 | 0.00 | 0.00 | 0.00 | 79 | 1013.6 |
| 20260504050501 | 52 | 40 | 5.0 | 0.0 | 0.00 | 0.00 | 0.00 | 79 | 1013.6 |
| 20260504050402 | 52 | 40 | 5.0 | 0.0 | 0.00 | 0.00 | 0.00 | 79 | 1013.6 |
| 20260504050301 | 52 | 37 | 6.0 | 0.0 | 0.00 | 0.00 | 0.00 | 78 | 1013.6 |
| 20260504050202 | 52 | 37 | 6.0 | 0.0 | 0.00 | 0.00 | 0.00 | 78 | 1013.6 |
| 20260504050002 | 52 | 22 | 5.0 | 0.0 | 0.00 | 0.00 | 0.00 | 78 | 1013.6 |
| 20260504045902 | 52 | 27 | 6.0 | 0.0 | 0.00 | 0.00 | 0.00 | 78 | 1013.6 |
| 20260504045801 | 52 | 27 | 6.0 | 0.0 | 0.00 | 0.00 | 0.00 | 78 | 1013.6 |
| 20260504045702 | 52 | 27 | 6.0 | 0.0 | 0.00 | 0.00 | 0.00 | 78 | 1013.6 |
| 20260504045601 | 52 | 37 | 5.0 | 0.0 | 0.00 | 0.00 | 0.00 | 78 | 1013.6 |
| 20260504045502 | 52 | 37 | 5.0 | 0.0 | 0.00 | 0.00 | 0.00 | 78 | 1013.6 |
| 20260504045402 | 52 | 42 | 5.0 | 0.0 | 0.00 | 0.00 | 0.00 | 78 | 1013.6 |
| 20260504045304 | 52 | 42 | 5.0 | 0.0 | 0.00 | 0.00 | 0.00 | 78 | 1013.5 |
| 20260504045202 | 52 | 42 | 5.0 | 0.0 | 0.00 | 0.00 | 0.00 | 78 | 1013.5 |
| 20260504045101 | 52 | 37 | 6.0 | 0.0 | 0.00 | 0.00 | 0.00 | 78 | 1013.6 |
| 20260504045002 | 52 | 37 | 6.0 | 0.0 | 0.00 | 0.00 | 0.00 | 78 | 1013.6 |
| 20260504044901 | 52 | 37 | 6.0 | 0.0 | 0.00 | 0.00 | 0.00 | 78 | 1013.6 |
| 20260504044802 | 52 | 40 | 4.0 | 0.0 | 0.00 | 0.00 | 0.00 | 78 | 1013.6 |
| 20260504044702 | 52 | 40 | 4.0 | 0.0 | 0.00 | 0.00 | 0.00 | 78 | 1013.6 |
| 20260504044602 | 52 | 40 | 4.0 | 0.0 | 0.00 | 0.00 | 0.00 | 78 | 1013.6 |
| 20260504044502 | 52 | 40 | 4.0 | 0.0 | 0.00 | 0.00 | 0.00 | 78 | 1013.5 |
| 20260504044401 | 52 | 40 | 4.0 | 0.0 | 0.00 | 0.00 | 0.00 | 78 | 1013.5 |
| 20260504044302 | 52 | 47 | 5.0 | 0.0 | 0.00 | 0.00 | 0.00 | 78 | 1013.6 |
| 20260504044201 | 52 | 47 | 5.0 | 0.0 | 0.00 | 0.00 | 0.00 | 78 | 1013.6 |
| 20260504044102 | 52 | 47 | 5.0 | 0.0 | 0.00 | 0.00 | 0.00 | 78 | 1013.6 |
| 20260504044002 | 52 | 50 | 6.0 | 0.0 | 0.00 | 0.00 | 0.00 | 78 | 1013.6 |
| 20260504043902 | 52 | 50 | 6.0 | 0.0 | 0.00 | 0.00 | 0.00 | 78 | 1013.6 |
| 20260504043802 | 52 | 50 | 5.0 | 0.0 | 0.00 | 0.00 | 0.00 | 78 | 1013.7 |
| 20260504043701 | 52 | 50 | 5.0 | 0.0 | 0.00 | 0.00 | 0.00 | 78 | 1013.6 |
| 20260504043602 | 52 | 50 | 5.0 | 0.0 | 0.00 | 0.00 | 0.00 | 78 | 1013.7 |
| 20260504043501 | 52 | 50 | 5.0 | 0.0 | 0.00 | 0.00 | 0.00 | 78 | 1013.7 |
| 20260504043402 | 52 | 50 | 5.0 | 0.0 | 0.00 | 0.00 | 0.00 | 78 | 1013.7 |
| 20260504043301 | 52 | 45 | 5.0 | 0.0 | 0.00 | 0.00 | 0.00 | 78 | 1013.6 |
| 20260504043202 | 52 | 45 | 5.0 | 0.0 | 0.00 | 0.00 | 0.00 | 78 | 1013.6 |
| 20260504043102 | 52 | 45 | 5.0 | 0.0 | 0.00 | 0.00 | 0.00 | 78 | 1013.6 |
| 20260504043002 | 52 | 47 | 6.0 | 0.0 | 0.00 | 0.00 | 0.00 | 78 | 1013.7 |
| 20260504042902 | 52 | 47 | 6.0 | 0.0 | 0.00 | 0.00 | 0.00 | 78 | 1013.6 |
| 20260504042801 | 52 | 47 | 6.0 | 0.0 | 0.00 | 0.00 | 0.00 | 78 | 1013.6 |
| 20260504042702 | 52 | 47 | 6.0 | 0.0 | 0.00 | 0.00 | 0.00 | 78 | 1013.6 |
| 20260504042601 | 52 | 45 | 5.0 | 0.0 | 0.00 | 0.00 | 0.00 | 78 | 1013.5 |
| 20260504042502 | 52 | 45 | 5.0 | 0.0 | 0.00 | 0.00 | 0.00 | 78 | 1013.6 |
| 20260504042402 | 52 | 45 | 5.0 | 0.0 | 0.00 | 0.00 | 0.00 | 78 | 1013.5 |
| 20260504042304 | 52 | 50 | 8.0 | 0.0 | 0.00 | 0.00 | 0.00 | 78 | 1013.6 |
| 20260504042201 | 52 | 50 | 8.0 | 0.0 | 0.00 | 0.00 | 0.00 | 78 | 1013.6 |
| 20260504042101 | 52 | 50 | 8.0 | 0.0 | 0.00 | 0.00 | 0.00 | 78 | 1013.5 |
| 20260504042002 | 52 | 50 | 8.0 | 0.0 | 0.00 | 0.00 | 0.00 | 78 | 1013.5 |
| 20260504041901 | 52 | 50 | 8.0 | 0.0 | 0.00 | 0.00 | 0.00 | 78 | 1013.5 |
| 20260504041802 | 52 | 50 | 8.0 | 0.0 | 0.00 | 0.00 | 0.00 | 78 | 1013.5 |
| 20260504041701 | 52 | 50 | 8.0 | 0.0 | 0.00 | 0.00 | 0.00 | 78 | 1013.5 |
| 20260504041602 | 52 | 50 | 8.0 | 0.0 | 0.00 | 0.00 | 0.00 | 78 | 1013.4 |
| 20260504041501 | 52 | 35 | 5.0 | 0.0 | 0.00 | 0.00 | 0.00 | 78 | 1013.5 |
| 20260504041402 | 52 | 35 | 5.0 | 0.0 | 0.00 | 0.00 | 0.00 | 78 | 1013.5 |
| 20260504041302 | 52 | 37 | 6.0 | 0.0 | 0.00 | 0.00 | 0.00 | 77 | 1013.4 |
| 20260504041201 | 52 | 37 | 6.0 | 0.0 | 0.00 | 0.00 | 0.00 | 77 | 1013.5 |
| 20260504041102 | 52 | 37 | 6.0 | 0.0 | 0.00 | 0.00 | 0.00 | 77 | 1013.4 |
| 20260504041001 | 53 | 42 | 6.0 | 0.0 | 0.00 | 0.00 | 0.00 | 77 | 1013.5 |
| 20260504040902 | 53 | 42 | 6.0 | 0.0 | 0.00 | 0.00 | 0.00 | 77 | 1013.5 |
| 20260504040801 | 52 | 50 | 6.0 | 0.0 | 0.00 | 0.00 | 0.00 | 78 | 1013.5 |
| 20260504040702 | 52 | 50 | 6.0 | 0.0 | 0.00 | 0.00 | 0.00 | 78 | 1013.5 |
| 20260504040601 | 52 | 50 | 6.0 | 0.0 | 0.00 | 0.00 | 0.00 | 78 | 1013.5 |
| 20260504040502 | 52 | 50 | 5.0 | 0.0 | 0.00 | 0.00 | 0.00 | 77 | 1013.5 |
| 20260504040401 | 52 | 50 | 5.0 | 0.0 | 0.00 | 0.00 | 0.00 | 77 | 1013.5 |
| 20260504040301 | 52 | 55 | 8.0 | 0.0 | 0.00 | 0.00 | 0.00 | 77 | 1013.5 |
| 20260504040202 | 52 | 55 | 8.0 | 0.0 | 0.00 | 0.00 | 0.00 | 77 | 1013.5 |
| 20260504040002 | 53 | 55 | 6.0 | 0.0 | 0.00 | 0.00 | 0.00 | 77 | 1013.4 |
| 20260504035901 | 53 | 55 | 6.0 | 0.0 | 0.00 | 0.00 | 0.00 | 77 | 1013.5 |
| 20260504035802 | 52 | 40 | 7.0 | 0.0 | 0.00 | 0.00 | 0.00 | 77 | 1013.5 |
| 20260504035702 | 52 | 40 | 7.0 | 0.0 | 0.00 | 0.00 | 0.00 | 77 | 1013.5 |
| 20260504035602 | 52 | 40 | 7.0 | 0.0 | 0.00 | 0.00 | 0.00 | 77 | 1013.4 |
| 20260504035502 | 52 | 37 | 7.0 | 0.0 | 0.00 | 0.00 | 0.00 | 77 | 1013.4 |
| 20260504035401 | 52 | 37 | 7.0 | 0.0 | 0.00 | 0.00 | 0.00 | 77 | 1013.5 |
| 20260504035302 | 52 | 42 | 6.0 | 0.0 | 0.00 | 0.00 | 0.00 | 78 | 1013.5 |
| 20260504035201 | 52 | 42 | 6.0 | 0.0 | 0.00 | 0.00 | 0.00 | 78 | 1013.4 |
| 20260504035102 | 52 | 42 | 6.0 | 0.0 | 0.00 | 0.00 | 0.00 | 78 | 1013.4 |
| 20260504035001 | 52 | 35 | 5.0 | 0.0 | 0.00 | 0.00 | 0.00 | 78 | 1013.4 |
| 20260504034902 | 52 | 35 | 5.0 | 0.0 | 0.00 | 0.00 | 0.00 | 78 | 1013.5 |
| 20260504034802 | 52 | 35 | 5.0 | 0.0 | 0.00 | 0.00 | 0.00 | 78 | 1013.4 |
| 20260504034702 | 52 | 35 | 5.0 | 0.0 | 0.00 | 0.00 | 0.00 | 78 | 1013.4 |
| 20260504034602 | 52 | 35 | 5.0 | 0.0 | 0.00 | 0.00 | 0.00 | 78 | 1013.4 |
| 20260504034502 | 52 | 40 | 6.0 | 0.0 | 0.00 | 0.00 | 0.00 | 78 | 1013.4 |
| 20260504034402 | 52 | 40 | 6.0 | 0.0 | 0.00 | 0.00 | 0.00 | 78 | 1013.4 |
| 20260504034301 | 52 | 40 | 5.0 | 0.0 | 0.00 | 0.00 | 0.00 | 78 | 1013.4 |
| 20260504034202 | 52 | 40 | 5.0 | 0.0 | 0.00 | 0.00 | 0.00 | 78 | 1013.4 |
| 20260504034101 | 52 | 40 | 5.0 | 0.0 | 0.00 | 0.00 | 0.00 | 78 | 1013.4 |
| 20260504034002 | 52 | 35 | 5.0 | 0.0 | 0.00 | 0.00 | 0.00 | 78 | 1013.4 |
| 20260504033901 | 52 | 35 | 5.0 | 0.0 | 0.00 | 0.00 | 0.00 | 78 | 1013.4 |
| 20260504033802 | 52 | 35 | 5.0 | 0.0 | 0.00 | 0.00 | 0.00 | 78 | 1013.4 |
| 20260504033701 | 52 | 47 | 5.0 | 0.0 | 0.00 | 0.00 | 0.00 | 78 | 1013.4 |
| 20260504033602 | 52 | 47 | 5.0 | 0.0 | 0.00 | 0.00 | 0.00 | 78 | 1013.4 |
| 20260504033502 | 52 | 47 | 5.0 | 0.0 | 0.00 | 0.00 | 0.00 | 78 | 1013.4 |
| 20260504033401 | 52 | 47 | 5.0 | 0.0 | 0.00 | 0.00 | 0.00 | 78 | 1013.4 |
| 20260504033302 | 52 | 67 | 5.0 | 0.0 | 0.00 | 0.00 | 0.00 | 78 | 1013.3 |
| 20260504033201 | 52 | 67 | 5.0 | 0.0 | 0.00 | 0.00 | 0.00 | 78 | 1013.3 |
| 20260504033102 | 52 | 67 | 5.0 | 0.0 | 0.00 | 0.00 | 0.00 | 78 | 1013.3 |
| 20260504033001 | 52 | 47 | 5.0 | 0.0 | 0.00 | 0.00 | 0.00 | 78 | 1013.3 |
| 20260504032902 | 52 | 47 | 5.0 | 0.0 | 0.00 | 0.00 | 0.00 | 78 | 1013.3 |
| 20260504032802 | 52 | 47 | 5.0 | 0.0 | 0.00 | 0.00 | 0.00 | 78 | 1013.3 |
| 20260504032702 | 52 | 47 | 5.0 | 0.0 | 0.00 | 0.00 | 0.00 | 78 | 1013.3 |
| 20260504032602 | 52 | 47 | 5.0 | 0.0 | 0.00 | 0.00 | 0.00 | 78 | 1013.3 |
| 20260504032501 | 52 | 47 | 5.0 | 0.0 | 0.00 | 0.00 | 0.00 | 78 | 1013.3 |
| 20260504032402 | 52 | 47 | 5.0 | 0.0 | 0.00 | 0.00 | 0.00 | 78 | 1013.3 |
| 20260504032303 | 52 | 47 | 5.0 | 0.0 | 0.00 | 0.00 | 0.00 | 78 | 1013.3 |
| 20260504032202 | 52 | 47 | 5.0 | 0.0 | 0.00 | 0.00 | 0.00 | 78 | 1013.3 |
| 20260504032102 | 52 | 47 | 5.0 | 0.0 | 0.00 | 0.00 | 0.00 | 78 | 1013.3 |
| 20260504032002 | 52 | 37 | 6.0 | 0.0 | 0.00 | 0.00 | 0.00 | 78 | 1013.3 |
| 20260504031902 | 52 | 37 | 6.0 | 0.0 | 0.00 | 0.00 | 0.00 | 78 | 1013.3 |
| 20260504031801 | 52 | 37 | 6.0 | 0.0 | 0.00 | 0.00 | 0.00 | 78 | 1013.3 |
| 20260504031702 | 52 | 37 | 4.0 | 0.0 | 0.00 | 0.00 | 0.00 | 78 | 1013.3 |
| 20260504031601 | 52 | 37 | 4.0 | 0.0 | 0.00 | 0.00 | 0.00 | 78 | 1013.2 |
| 20260504031502 | 52 | 37 | 4.0 | 0.0 | 0.00 | 0.00 | 0.00 | 78 | 1013.3 |
| 20260504031401 | 51 | 55 | 4.0 | 0.0 | 0.00 | 0.00 | 0.00 | 78 | 1013.3 |
| 20260504031302 | 51 | 55 | 4.0 | 0.0 | 0.00 | 0.00 | 0.00 | 78 | 1013.3 |
| 20260504031202 | 51 | 60 | 4.0 | 0.0 | 0.00 | 0.00 | 0.00 | 78 | 1013.4 |
| 20260504031102 | 51 | 60 | 4.0 | 0.0 | 0.00 | 0.00 | 0.00 | 78 | 1013.3 |
| 20260504031002 | 51 | 62 | 3.0 | 0.0 | 0.00 | 0.00 | 0.00 | 78 | 1013.3 |
| 20260504030901 | 51 | 62 | 3.0 | 0.0 | 0.00 | 0.00 | 0.00 | 78 | 1013.3 |
| 20260504030802 | 51 | 62 | 3.0 | 0.0 | 0.00 | 0.00 | 0.00 | 78 | 1013.3 |
| 20260504030701 | 51 | 57 | 4.0 | 0.0 | 0.00 | 0.00 | 0.00 | 78 | 1013.3 |
| 20260504030602 | 51 | 57 | 4.0 | 0.0 | 0.00 | 0.00 | 0.00 | 78 | 1013.4 |
| 20260504030501 | 51 | 57 | 4.0 | 0.0 | 0.00 | 0.00 | 0.00 | 78 | 1013.3 |
| 20260504030402 | 51 | 55 | 4.0 | 0.0 | 0.00 | 0.00 | 0.00 | 78 | 1013.3 |
| 20260504030302 | 51 | 55 | 4.0 | 0.0 | 0.00 | 0.00 | 0.00 | 78 | 1013.4 |
| 20260504030201 | 51 | 55 | 4.0 | 0.0 | 0.00 | 0.00 | 0.00 | 78 | 1013.4 |
| 20260504030001 | 51 | 57 | 5.0 | 0.0 | 0.00 | 0.00 | 0.00 | 79 | 1013.4 |
| 20260504025902 | 51 | 45 | 4.0 | 0.0 | 0.00 | 0.00 | 0.00 | 79 | 1013.4 |
| 20260504025802 | 51 | 45 | 4.0 | 0.0 | 0.00 | 0.00 | 0.00 | 79 | 1013.4 |
| 20260504025702 | 51 | 45 | 4.0 | 0.0 | 0.00 | 0.00 | 0.00 | 79 | 1013.3 |
| 20260504025602 | 51 | 57 | 5.0 | 0.0 | 0.00 | 0.00 | 0.00 | 79 | 1013.4 |
| 20260504025501 | 51 | 57 | 5.0 | 0.0 | 0.00 | 0.00 | 0.00 | 79 | 1013.4 |
| 20260504025402 | 51 | 50 | 4.0 | 0.0 | 0.00 | 0.00 | 0.00 | 79 | 1013.5 |
| 20260504025304 | 51 | 50 | 4.0 | 0.0 | 0.00 | 0.00 | 0.00 | 79 | 1013.4 |
| 20260504025202 | 51 | 50 | 4.0 | 0.0 | 0.00 | 0.00 | 0.00 | 79 | 1013.4 |
| 20260504025102 | 51 | 62 | 3.0 | 0.0 | 0.00 | 0.00 | 0.00 | 79 | 1013.5 |
| 20260504025002 | 51 | 62 | 3.0 | 0.0 | 0.00 | 0.00 | 0.00 | 79 | 1013.4 |
| 20260504024902 | 51 | 62 | 3.0 | 0.0 | 0.00 | 0.00 | 0.00 | 79 | 1013.4 |
| 20260504024801 | 51 | 62 | 3.0 | 0.0 | 0.00 | 0.00 | 0.00 | 79 | 1013.4 |
| 20260504024702 | 51 | 62 | 3.0 | 0.0 | 0.00 | 0.00 | 0.00 | 79 | 1013.4 |
| 20260504024601 | 51 | 55 | 4.0 | 0.0 | 0.00 | 0.00 | 0.00 | 79 | 1013.4 |
| 20260504024502 | 51 | 55 | 4.0 | 0.0 | 0.00 | 0.00 | 0.00 | 79 | 1013.5 |
| 20260504024401 | 51 | 47 | 4.0 | 0.0 | 0.00 | 0.00 | 0.00 | 79 | 1013.5 |
| 20260504024302 | 51 | 47 | 4.0 | 0.0 | 0.00 | 0.00 | 0.00 | 79 | 1013.5 |
| 20260504024201 | 51 | 47 | 4.0 | 0.0 | 0.00 | 0.00 | 0.00 | 79 | 1013.5 |
| 20260504024102 | 51 | 57 | 4.0 | 0.0 | 0.00 | 0.00 | 0.00 | 79 | 1013.5 |
| 20260504024002 | 51 | 57 | 4.0 | 0.0 | 0.00 | 0.00 | 0.00 | 79 | 1013.5 |
| 20260504023901 | 51 | 72 | 4.0 | 0.0 | 0.00 | 0.00 | 0.00 | 79 | 1013.4 |
| 20260504023802 | 51 | 72 | 4.0 | 0.0 | 0.00 | 0.00 | 0.00 | 79 | 1013.5 |
| 20260504023701 | 51 | 72 | 4.0 | 0.0 | 0.00 | 0.00 | 0.00 | 79 | 1013.4 |
| 20260504023602 | 51 | 45 | 5.0 | 0.0 | 0.00 | 0.00 | 0.00 | 79 | 1013.5 |
| 20260504023501 | 51 | 45 | 5.0 | 0.0 | 0.00 | 0.00 | 0.00 | 79 | 1013.5 |
| 20260504023401 | 51 | 45 | 5.0 | 0.0 | 0.00 | 0.00 | 0.00 | 79 | 1013.5 |
| 20260504023302 | 51 | 45 | 5.0 | 0.0 | 0.00 | 0.00 | 0.00 | 79 | 1013.5 |
| 20260504023201 | 51 | 45 | 5.0 | 0.0 | 0.00 | 0.00 | 0.00 | 79 | 1013.5 |
| 20260504023102 | 50 | 60 | 5.0 | 0.0 | 0.00 | 0.00 | 0.00 | 79 | 1013.5 |
| 20260504023002 | 50 | 60 | 5.0 | 0.0 | 0.00 | 0.00 | 0.00 | 79 | 1013.5 |
| 20260504022902 | 50 | 60 | 5.0 | 0.0 | 0.00 | 0.00 | 0.00 | 79 | 1013.6 |
| 20260504022802 | 50 | 67 | 4.0 | 0.0 | 0.00 | 0.00 | 0.00 | 79 | 1013.5 |
| 20260504022701 | 50 | 67 | 4.0 | 0.0 | 0.00 | 0.00 | 0.00 | 79 | 1013.5 |
| 20260504022602 | 50 | 62 | 4.0 | 0.0 | 0.00 | 0.00 | 0.00 | 79 | 1013.5 |
| 20260504022501 | 50 | 62 | 4.0 | 0.0 | 0.00 | 0.00 | 0.00 | 79 | 1013.5 |
| 20260504022402 | 50 | 67 | 4.0 | 0.0 | 0.00 | 0.00 | 0.00 | 79 | 1013.5 |
| 20260504022301 | 50 | 67 | 4.0 | 0.0 | 0.00 | 0.00 | 0.00 | 79 | 1013.5 |
| 20260504022202 | 50 | 67 | 4.0 | 0.0 | 0.00 | 0.00 | 0.00 | 79 | 1013.5 |
| 20260504022102 | 51 | 75 | 4.0 | 0.0 | 0.00 | 0.00 | 0.00 | 79 | 1013.5 |
| 20260504022001 | 51 | 75 | 4.0 | 0.0 | 0.00 | 0.00 | 0.00 | 79 | 1013.5 |
| 20260504021902 | 51 | 75 | 4.0 | 0.0 | 0.00 | 0.00 | 0.00 | 79 | 1013.5 |
| 20260504021801 | 51 | 77 | 5.0 | 0.0 | 0.00 | 0.00 | 0.00 | 79 | 1013.5 |
| 20260504021702 | 51 | 77 | 5.0 | 0.0 | 0.00 | 0.00 | 0.00 | 79 | 1013.5 |
| 20260504021602 | 51 | 72 | 5.0 | 0.0 | 0.00 | 0.00 | 0.00 | 79 | 1013.5 |
| 20260504021502 | 51 | 72 | 5.0 | 0.0 | 0.00 | 0.00 | 0.00 | 79 | 1013.5 |
| 20260504021401 | 51 | 70 | 4.0 | 0.0 | 0.00 | 0.00 | 0.00 | 79 | 1013.5 |
| 20260504021302 | 51 | 70 | 4.0 | 0.0 | 0.00 | 0.00 | 0.00 | 79 | 1013.5 |
| 20260504021202 | 51 | 70 | 4.0 | 0.0 | 0.00 | 0.00 | 0.00 | 79 | 1013.4 |
| 20260504021101 | 51 | 72 | 3.0 | 0.0 | 0.00 | 0.00 | 0.00 | 79 | 1013.5 |
| 20260504021002 | 51 | 72 | 3.0 | 0.0 | 0.00 | 0.00 | 0.00 | 79 | 1013.5 |
| 20260504020902 | 51 | 72 | 3.0 | 0.0 | 0.00 | 0.00 | 0.00 | 79 | 1013.5 |
| 20260504020802 | 51 | 75 | 5.0 | 0.0 | 0.00 | 0.00 | 0.00 | 79 | 1013.5 |
| 20260504020701 | 51 | 75 | 5.0 | 0.0 | 0.00 | 0.00 | 0.00 | 79 | 1013.5 |
| 20260504020601 | 51 | 75 | 5.0 | 0.0 | 0.00 | 0.00 | 0.00 | 79 | 1013.5 |
| 20260504020502 | 50 | 80 | 5.0 | 0.0 | 0.00 | 0.00 | 0.00 | 79 | 1013.5 |
| 20260504020401 | 50 | 80 | 5.0 | 0.0 | 0.00 | 0.00 | 0.00 | 79 | 1013.5 |
| 20260504020302 | 50 | 72 | 5.0 | 0.0 | 0.00 | 0.00 | 0.00 | 79 | 1013.6 |
| 20260504020201 | 50 | 72 | 5.0 | 0.0 | 0.00 | 0.00 | 0.00 | 79 | 1013.5 |
| 20260504020002 | 50 | 65 | 4.0 | 0.0 | 0.00 | 0.00 | 0.00 | 79 | 1013.5 |
| 20260504015902 | 50 | 65 | 4.0 | 0.0 | 0.00 | 0.00 | 0.00 | 79 | 1013.5 |
| 20260504015802 | 50 | 57 | 5.0 | 0.0 | 0.00 | 0.00 | 0.00 | 79 | 1013.5 |
| 20260504015701 | 50 | 57 | 5.0 | 0.0 | 0.00 | 0.00 | 0.00 | 79 | 1013.4 |
| 20260504015602 | 50 | 57 | 5.0 | 0.0 | 0.00 | 0.00 | 0.00 | 79 | 1013.4 |
| 20260504015502 | 50 | 57 | 4.0 | 0.0 | 0.00 | 0.00 | 0.00 | 79 | 1013.4 |
| 20260504015402 | 50 | 57 | 4.0 | 0.0 | 0.00 | 0.00 | 0.00 | 79 | 1013.4 |
| 20260504015301 | 50 | 70 | 4.0 | 0.0 | 0.00 | 0.00 | 0.00 | 78 | 1013.4 |
| 20260504015202 | 50 | 70 | 4.0 | 0.0 | 0.00 | 0.00 | 0.00 | 78 | 1013.3 |
| 20260504015102 | 50 | 80 | 4.0 | 0.0 | 0.00 | 0.00 | 0.00 | 78 | 1013.3 |
| 20260504015001 | 50 | 80 | 4.0 | 0.0 | 0.00 | 0.00 | 0.00 | 78 | 1013.3 |
| 20260504014902 | 50 | 80 | 4.0 | 0.0 | 0.00 | 0.00 | 0.00 | 78 | 1013.3 |
| 20260504014801 | 50 | 70 | 0.0 | 0.0 | 0.00 | 0.00 | 0.00 | 78 | 1013.3 |
| 20260504014702 | 50 | 70 | 0.0 | 0.0 | 0.00 | 0.00 | 0.00 | 78 | 1013.3 |
| 20260504014601 | 50 | 70 | 0.0 | 0.0 | 0.00 | 0.00 | 0.00 | 78 | 1013.3 |
| 20260504014502 | 51 | 82 | 6.0 | 0.0 | 0.00 | 0.00 | 0.00 | 77 | 1013.3 |
| 20260504014402 | 51 | 82 | 6.0 | 0.0 | 0.00 | 0.00 | 0.00 | 77 | 1013.3 |
| 20260504014302 | 51 | 82 | 6.0 | 0.0 | 0.00 | 0.00 | 0.00 | 77 | 1013.3 |
| 20260504014202 | 51 | 82 | 6.0 | 0.0 | 0.00 | 0.00 | 0.00 | 77 | 1013.2 |
| 20260504014101 | 51 | 82 | 6.0 | 0.0 | 0.00 | 0.00 | 0.00 | 77 | 1013.2 |
| 20260504014002 | 51 | 82 | 6.0 | 0.0 | 0.00 | 0.00 | 0.00 | 77 | 1013.2 |
| 20260504013901 | 51 | 82 | 6.0 | 0.0 | 0.00 | 0.00 | 0.00 | 77 | 1013.2 |
| 20260504013802 | 51 | 87 | 6.0 | 0.0 | 0.00 | 0.00 | 0.00 | 77 | 1013.2 |
| 20260504013701 | 51 | 87 | 6.0 | 0.0 | 0.00 | 0.00 | 0.00 | 77 | 1013.2 |
| 20260504013601 | 51 | 87 | 6.0 | 0.0 | 0.00 | 0.00 | 0.00 | 77 | 1013.2 |
| 20260504013502 | 51 | 82 | 5.0 | 0.0 | 0.00 | 0.00 | 0.00 | 77 | 1013.2 |
| 20260504013401 | 51 | 82 | 5.0 | 0.0 | 0.00 | 0.00 | 0.00 | 77 | 1013.2 |
| 20260504013302 | 51 | 82 | 5.0 | 0.0 | 0.00 | 0.00 | 0.00 | 77 | 1013.1 |
| 20260504013201 | 51 | 80 | 5.0 | 0.0 | 0.00 | 0.00 | 0.00 | 77 | 1013.1 |
| 20260504013102 | 51 | 80 | 5.0 | 0.0 | 0.00 | 0.00 | 0.00 | 77 | 1013.1 |
| 20260504013002 | 51 | 77 | 5.0 | 0.0 | 0.00 | 0.00 | 0.00 | 77 | 1013.1 |
| 20260504012901 | 51 | 77 | 5.0 | 0.0 | 0.00 | 0.00 | 0.00 | 77 | 1013.1 |
| 20260504012802 | 51 | 72 | 5.0 | 0.0 | 0.00 | 0.00 | 0.00 | 77 | 1013.2 |
| 20260504012701 | 51 | 72 | 5.0 | 0.0 | 0.00 | 0.00 | 0.00 | 77 | 1013.2 |
| 20260504012602 | 51 | 72 | 5.0 | 0.0 | 0.00 | 0.00 | 0.00 | 77 | 1013.2 |
| 20260504012501 | 51 | 72 | 5.0 | 0.0 | 0.00 | 0.00 | 0.00 | 77 | 1013.2 |
| 20260504012402 | 51 | 72 | 5.0 | 0.0 | 0.00 | 0.00 | 0.00 | 77 | 1013.2 |
| 20260504012304 | 51 | 72 | 5.0 | 0.0 | 0.00 | 0.00 | 0.00 | 77 | 1013.2 |
| 20260504012202 | 51 | 75 | 0.0 | 0.0 | 0.00 | 0.00 | 0.00 | 77 | 1013.2 |
| 20260504012102 | 51 | 75 | 0.0 | 0.0 | 0.00 | 0.00 | 0.00 | 77 | 1013.2 |
| 20260504012001 | 51 | 75 | 5.0 | 0.0 | 0.00 | 0.00 | 0.00 | 77 | 1013.2 |
| 20260504011902 | 51 | 75 | 5.0 | 0.0 | 0.00 | 0.00 | 0.00 | 77 | 1013.2 |
| 20260504011801 | 51 | 75 | 5.0 | 0.0 | 0.00 | 0.00 | 0.00 | 77 | 1013.2 |
| 20260504011702 | 51 | 75 | 5.0 | 0.0 | 0.00 | 0.00 | 0.00 | 77 | 1013.2 |
| 20260504011601 | 51 | 75 | 5.0 | 0.0 | 0.00 | 0.00 | 0.00 | 77 | 1013.3 |
| 20260504011502 | 51 | 72 | 5.0 | 0.0 | 0.00 | 0.00 | 0.00 | 76 | 1013.3 |
| 20260504011402 | 51 | 72 | 5.0 | 0.0 | 0.00 | 0.00 | 0.00 | 76 | 1013.4 |
| 20260504011302 | 52 | 65 | 5.0 | 0.0 | 0.00 | 0.00 | 0.00 | 75 | 1013.3 |
| 20260504011202 | 52 | 65 | 5.0 | 0.0 | 0.00 | 0.00 | 0.00 | 75 | 1013.4 |
| 20260504011101 | 52 | 65 | 5.0 | 0.0 | 0.00 | 0.00 | 0.00 | 75 | 1013.3 |
| 20260504011002 | 52 | 70 | 5.0 | 0.0 | 0.00 | 0.00 | 0.00 | 75 | 1013.3 |
| 20260504010901 | 52 | 70 | 5.0 | 0.0 | 0.00 | 0.00 | 0.00 | 75 | 1013.3 |
| 20260504010802 | 53 | 65 | 4.0 | 0.0 | 0.00 | 0.00 | 0.00 | 75 | 1013.4 |
| 20260504010702 | 53 | 65 | 4.0 | 0.0 | 0.00 | 0.00 | 0.00 | 75 | 1013.4 |
| 20260504010601 | 53 | 65 | 4.0 | 0.0 | 0.00 | 0.00 | 0.00 | 75 | 1013.3 |
| 20260504010502 | 53 | 70 | 5.0 | 0.0 | 0.00 | 0.00 | 0.00 | 74 | 1013.3 |
| 20260504010401 | 53 | 70 | 5.0 | 0.0 | 0.00 | 0.00 | 0.00 | 74 | 1013.3 |
| 20260504010302 | 53 | 57 | 5.0 | 0.0 | 0.00 | 0.00 | 0.00 | 74 | 1013.3 |
| 20260504010201 | 53 | 57 | 5.0 | 0.0 | 0.00 | 0.00 | 0.00 | 74 | 1013.3 |
| 20260504010002 | 53 | 57 | 5.0 | 0.0 | 0.00 | 0.00 | 0.00 | 74 | 1013.3 |
| 20260504005901 | 53 | 57 | 5.0 | 0.0 | 0.00 | 0.00 | 0.00 | 74 | 1013.3 |
| 20260504005802 | 53 | 50 | 4.0 | 0.0 | 0.00 | 0.00 | 0.00 | 73 | 1013.3 |
| 20260504005701 | 53 | 50 | 4.0 | 0.0 | 0.00 | 0.00 | 0.00 | 73 | 1013.3 |
| 20260504005602 | 53 | 50 | 4.0 | 0.0 | 0.00 | 0.00 | 0.00 | 73 | 1013.3 |
| 20260504005501 | 53 | 50 | 4.0 | 0.0 | 0.00 | 0.00 | 0.00 | 73 | 1013.3 |
| 20260504005402 | 53 | 50 | 4.0 | 0.0 | 0.00 | 0.00 | 0.00 | 73 | 1013.3 |
| 20260504005302 | 53 | 50 | 5.0 | 0.0 | 0.00 | 0.00 | 0.00 | 73 | 1013.4 |
| 20260504005202 | 53 | 50 | 5.0 | 0.0 | 0.00 | 0.00 | 0.00 | 73 | 1013.3 |
| 20260504005102 | 53 | 50 | 5.0 | 0.0 | 0.00 | 0.00 | 0.00 | 73 | 1013.3 |
| 20260504005001 | 53 | 45 | 6.0 | 0.0 | 0.00 | 0.00 | 0.00 | 73 | 1013.3 |
| 20260504004902 | 53 | 45 | 6.0 | 0.0 | 0.00 | 0.00 | 0.00 | 73 | 1013.3 |
| 20260504004802 | 53 | 45 | 6.0 | 0.0 | 0.00 | 0.00 | 0.00 | 73 | 1013.3 |
| 20260504004702 | 53 | 45 | 6.0 | 0.0 | 0.00 | 0.00 | 0.00 | 73 | 1013.3 |
| 20260504004601 | 53 | 45 | 6.0 | 0.0 | 0.00 | 0.00 | 0.00 | 73 | 1013.2 |
| 20260504004502 | 53 | 47 | 7.0 | 0.0 | 0.00 | 0.00 | 0.00 | 73 | 1013.3 |
| 20260504004402 | 53 | 47 | 7.0 | 0.0 | 0.00 | 0.00 | 0.00 | 73 | 1013.2 |
| 20260504004301 | 54 | 40 | 5.0 | 0.0 | 0.00 | 0.00 | 0.00 | 73 | 1013.3 |
| 20260504004202 | 54 | 40 | 5.0 | 0.0 | 0.00 | 0.00 | 0.00 | 73 | 1013.2 |
| 20260504004101 | 54 | 40 | 5.0 | 0.0 | 0.00 | 0.00 | 0.00 | 73 | 1013.2 |
| 20260504004002 | 54 | 45 | 6.0 | 0.0 | 0.00 | 0.00 | 0.00 | 72 | 1013.2 |
| 20260504003901 | 54 | 45 | 6.0 | 0.0 | 0.00 | 0.00 | 0.00 | 72 | 1013.2 |
| 20260504003802 | 54 | 45 | 6.0 | 0.0 | 0.00 | 0.00 | 0.00 | 72 | 1013.2 |
| 20260504003702 | 54 | 45 | 7.0 | 0.0 | 0.00 | 0.00 | 0.00 | 72 | 1013.2 |
| 20260504003601 | 54 | 45 | 7.0 | 0.0 | 0.00 | 0.00 | 0.00 | 72 | 1013.2 |
| 20260504003502 | 54 | 37 | 7.0 | 0.0 | 0.00 | 0.00 | 0.00 | 73 | 1013.2 |
| 20260504003401 | 54 | 37 | 7.0 | 0.0 | 0.00 | 0.00 | 0.00 | 73 | 1013.2 |
| 20260504003302 | 54 | 35 | 7.0 | 0.0 | 0.00 | 0.00 | 0.00 | 72 | 1013.2 |
| 20260504003201 | 54 | 35 | 7.0 | 0.0 | 0.00 | 0.00 | 0.00 | 72 | 1013.1 |
| 20260504003102 | 54 | 35 | 7.0 | 0.0 | 0.00 | 0.00 | 0.00 | 72 | 1013.2 |
| 20260504003002 | 54 | 30 | 7.0 | 0.0 | 0.00 | 0.00 | 0.00 | 73 | 1013.2 |
| 20260504002902 | 54 | 30 | 7.0 | 0.0 | 0.00 | 0.00 | 0.00 | 73 | 1013.2 |
| 20260504002802 | 54 | 30 | 7.0 | 0.0 | 0.00 | 0.00 | 0.00 | 73 | 1013.2 |
| 20260504002701 | 54 | 30 | 7.0 | 0.0 | 0.00 | 0.00 | 0.00 | 73 | 1013.2 |
| 20260504002602 | 54 | 30 | 7.0 | 0.0 | 0.00 | 0.00 | 0.00 | 73 | 1013.2 |
| 20260504002501 | 54 | 30 | 7.0 | 0.0 | 0.00 | 0.00 | 0.00 | 73 | 1013.2 |
| 20260504002402 | 54 | 30 | 7.0 | 0.0 | 0.00 | 0.00 | 0.00 | 73 | 1013.2 |
| 20260504002303 | 54 | 30 | 7.0 | 0.0 | 0.00 | 0.00 | 0.00 | 73 | 1013.2 |
| 20260504002102 | 53 | 35 | 9.0 | 0.0 | 0.00 | 0.00 | 0.00 | 74 | 1013.2 |
| 20260504002002 | 53 | 42 | 6.0 | 0.0 | 0.00 | 0.00 | 0.00 | 74 | 1013.2 |
| 20260504001902 | 53 | 42 | 6.0 | 0.0 | 0.00 | 0.00 | 0.00 | 74 | 1013.2 |
| 20260504001702 | 53 | 42 | 6.0 | 0.0 | 0.00 | 0.00 | 0.00 | 74 | 1013.2 |
| 20260504001601 | 53 | 42 | 6.0 | 0.0 | 0.00 | 0.00 | 0.00 | 74 | 1013.2 |
| 20260504001502 | 53 | 42 | 6.0 | 0.0 | 0.00 | 0.00 | 0.00 | 74 | 1013.2 |
| 20260504001401 | 53 | 42 | 6.0 | 0.0 | 0.00 | 0.00 | 0.00 | 74 | 1013.1 |
| 20260504001302 | 53 | 42 | 6.0 | 0.0 | 0.00 | 0.00 | 0.00 | 74 | 1013.2 |
| 20260504001202 | 53 | 37 | 6.0 | 0.0 | 0.00 | 0.00 | 0.00 | 74 | 1013.2 |
| 20260504001102 | 53 | 37 | 6.0 | 0.0 | 0.00 | 0.00 | 0.00 | 74 | 1013.1 |
| 20260504001002 | 53 | 42 | 6.0 | 0.0 | 0.00 | 0.00 | 0.00 | 74 | 1013.2 |
| 20260504000901 | 53 | 42 | 6.0 | 0.0 | 0.00 | 0.00 | 0.00 | 74 | 1013.2 |
| 20260504000802 | 53 | 42 | 6.0 | 0.0 | 0.00 | 0.00 | 0.00 | 74 | 1013.2 |
| 20260504000701 | 53 | 52 | 5.0 | 0.0 | 0.00 | 0.00 | 0.00 | 74 | 1013.2 |
| 20260504000602 | 53 | 52 | 5.0 | 0.0 | 0.00 | 0.00 | 0.00 | 74 | 1013.2 |
| 20260504000501 | 53 | 52 | 5.0 | 0.0 | 0.00 | 0.00 | 0.00 | 74 | 1013.2 |
| 20260504000402 | 53 | 42 | 4.0 | 0.0 | 0.00 | 0.00 | 0.00 | 74 | 1013.2 |
| 20260504000302 | 53 | 42 | 4.0 | 0.0 | 0.00 | 0.00 | 0.00 | 74 | 1013.2 |
| 20260504000201 | 53 | 42 | 4.0 | 0.0 | 0.00 | 0.00 | 0.00 | 74 | 1013.3 |
| 20260504000001 | 54 | 30 | 5.0 | 0.0 | 0.00 | 0.00 | 0.00 | 74 | 1013.2 |
| 20260503235902 | 54 | 37 | 5.0 | 0.0 | 0.00 | 0.00 | 0.00 | 73 | 1013.2 |
| 20260503235801 | 54 | 37 | 5.0 | 0.0 | 0.00 | 0.00 | 0.00 | 73 | 1013.2 |
| 20260503235701 | 54 | 37 | 5.0 | 0.0 | 0.00 | 0.00 | 0.00 | 73 | 1013.2 |
| 20260503235602 | 54 | 35 | 4.0 | 0.0 | 0.00 | 0.00 | 0.00 | 73 | 1013.2 |
| 20260503235501 | 54 | 35 | 4.0 | 0.0 | 0.00 | 0.00 | 0.00 | 73 | 1013.2 |
| 20260503235402 | 54 | 35 | 4.0 | 0.0 | 0.00 | 0.00 | 0.00 | 73 | 1013.2 |
| 20260503235301 | 54 | 35 | 4.0 | 0.0 | 0.00 | 0.00 | 0.00 | 73 | 1013.2 |
| 20260503235202 | 54 | 35 | 4.0 | 0.0 | 0.00 | 0.00 | 0.00 | 73 | 1013.2 |
| 20260503235102 | 54 | 35 | 5.0 | 0.0 | 0.00 | 0.00 | 0.00 | 74 | 1013.2 |
| 20260503235002 | 54 | 35 | 5.0 | 0.0 | 0.00 | 0.00 | 0.00 | 74 | 1013.3 |
| 20260503234902 | 53 | 55 | 6.0 | 0.0 | 0.00 | 0.00 | 0.00 | 74 | 1013.2 |
| 20260503234801 | 53 | 55 | 6.0 | 0.0 | 0.00 | 0.00 | 0.00 | 74 | 1013.3 |
| 20260503234702 | 53 | 55 | 6.0 | 0.0 | 0.00 | 0.00 | 0.00 | 74 | 1013.3 |
| 20260503234601 | 54 | 57 | 4.0 | 0.0 | 0.00 | 0.00 | 0.00 | 74 | 1013.3 |
| 20260503234502 | 54 | 57 | 4.0 | 0.0 | 0.00 | 0.00 | 0.00 | 74 | 1013.3 |
| 20260503234401 | 54 | 65 | 5.0 | 0.0 | 0.00 | 0.00 | 0.00 | 74 | 1013.3 |
| 20260503234302 | 54 | 65 | 5.0 | 0.0 | 0.00 | 0.00 | 0.00 | 74 | 1013.3 |
| 20260503234201 | 54 | 65 | 5.0 | 0.0 | 0.00 | 0.00 | 0.00 | 74 | 1013.3 |
| 20260503234102 | 54 | 70 | 4.0 | 0.0 | 0.00 | 0.00 | 0.00 | 73 | 1013.3 |
| 20260503234002 | 54 | 70 | 4.0 | 0.0 | 0.00 | 0.00 | 0.00 | 73 | 1013.3 |
| 20260503233901 | 54 | 75 | 5.0 | 0.0 | 0.00 | 0.00 | 0.00 | 73 | 1013.3 |
| 20260503233802 | 54 | 75 | 5.0 | 0.0 | 0.00 | 0.00 | 0.00 | 73 | 1013.3 |
| 20260503233701 | 54 | 75 | 5.0 | 0.0 | 0.00 | 0.00 | 0.00 | 73 | 1013.3 |
| 20260503233602 | 54 | 70 | 4.0 | 0.0 | 0.00 | 0.00 | 0.00 | 73 | 1013.3 |
| 20260503233501 | 54 | 70 | 4.0 | 0.0 | 0.00 | 0.00 | 0.00 | 73 | 1013.3 |
| 20260503233402 | 54 | 67 | 5.0 | 0.0 | 0.00 | 0.00 | 0.00 | 72 | 1013.3 |
| 20260503233301 | 54 | 67 | 5.0 | 0.0 | 0.00 | 0.00 | 0.00 | 72 | 1013.3 |
| 20260503233202 | 54 | 67 | 5.0 | 0.0 | 0.00 | 0.00 | 0.00 | 72 | 1013.3 |
| 20260503233102 | 54 | 67 | 5.0 | 0.0 | 0.00 | 0.00 | 0.00 | 72 | 1013.3 |
| 20260503232902 | 54 | 67 | 5.0 | 0.0 | 0.00 | 0.00 | 0.00 | 72 | 1013.3 |
| 20260503232801 | 54 | 70 | 4.0 | 0.0 | 0.00 | 0.00 | 0.00 | 72 | 1013.3 |
| 20260503232702 | 54 | 70 | 4.0 | 0.0 | 0.00 | 0.00 | 0.00 | 72 | 1013.3 |
| 20260503232601 | 55 | 65 | 5.0 | 0.0 | 0.00 | 0.00 | 0.00 | 71 | 1013.3 |
| 20260503232502 | 55 | 65 | 5.0 | 0.0 | 0.00 | 0.00 | 0.00 | 71 | 1013.3 |
| 20260503232402 | 55 | 60 | 5.0 | 0.0 | 0.00 | 0.00 | 0.00 | 71 | 1013.4 |
| 20260503232305 | 55 | 60 | 5.0 | 0.0 | 0.00 | 0.00 | 0.00 | 71 | 1013.4 |
| 20260503232202 | 55 | 60 | 5.0 | 0.0 | 0.00 | 0.00 | 0.00 | 71 | 1013.4 |
| 20260503232101 | 55 | 55 | 5.0 | 0.0 | 0.00 | 0.00 | 0.00 | 70 | 1013.4 |
| 20260503232002 | 55 | 55 | 5.0 | 0.0 | 0.00 | 0.00 | 0.00 | 70 | 1013.4 |
| 20260503231901 | 55 | 55 | 5.0 | 0.0 | 0.00 | 0.00 | 0.00 | 70 | 1013.4 |
| 20260503231802 | 55 | 60 | 5.0 | 0.0 | 0.00 | 0.00 | 0.00 | 70 | 1013.4 |
| 20260503231701 | 55 | 60 | 5.0 | 0.0 | 0.00 | 0.00 | 0.00 | 70 | 1013.4 |
| 20260503231602 | 55 | 55 | 6.0 | 0.0 | 0.00 | 0.00 | 0.00 | 70 | 1013.4 |
| 20260503231501 | 55 | 55 | 6.0 | 0.0 | 0.00 | 0.00 | 0.00 | 70 | 1013.4 |
| 20260503231402 | 55 | 55 | 7.0 | 0.0 | 0.00 | 0.00 | 0.00 | 70 | 1013.4 |
| 20260503231302 | 55 | 55 | 7.0 | 0.0 | 0.00 | 0.00 | 0.00 | 70 | 1013.4 |
| 20260503231202 | 55 | 55 | 7.0 | 0.0 | 0.00 | 0.00 | 0.00 | 70 | 1013.4 |
| 20260503231102 | 55 | 60 | 6.0 | 0.0 | 0.00 | 0.00 | 0.00 | 70 | 1013.4 |
| 20260503231001 | 55 | 60 | 6.0 | 0.0 | 0.00 | 0.00 | 0.00 | 70 | 1013.4 |
| 20260503230902 | 55 | 60 | 6.0 | 0.0 | 0.00 | 0.00 | 0.00 | 70 | 1013.4 |
| 20260503230801 | 55 | 65 | 5.0 | 0.0 | 0.00 | 0.00 | 0.00 | 69 | 1013.4 |
| 20260503230702 | 55 | 65 | 5.0 | 0.0 | 0.00 | 0.00 | 0.00 | 69 | 1013.4 |
| 20260503230602 | 55 | 65 | 5.0 | 0.0 | 0.00 | 0.00 | 0.00 | 69 | 1013.4 |
| 20260503230502 | 55 | 67 | 6.0 | 0.0 | 0.00 | 0.00 | 0.00 | 69 | 1013.4 |
| 20260503230402 | 55 | 67 | 6.0 | 0.0 | 0.00 | 0.00 | 0.00 | 69 | 1013.4 |
| 20260503230302 | 56 | 57 | 5.0 | 0.0 | 0.00 | 0.00 | 0.00 | 68 | 1013.4 |
| 20260503230202 | 56 | 57 | 5.0 | 0.0 | 0.00 | 0.00 | 0.00 | 68 | 1013.4 |
| 20260503230002 | 56 | 57 | 5.0 | 0.0 | 0.00 | 0.00 | 0.00 | 68 | 1013.5 |
| 20260503225901 | 56 | 57 | 5.0 | 0.0 | 0.00 | 0.00 | 0.00 | 68 | 1013.4 |
| 20260503225802 | 56 | 60 | 5.0 | 0.0 | 0.00 | 0.00 | 0.00 | 67 | 1013.4 |
| 20260503225702 | 56 | 60 | 5.0 | 0.0 | 0.00 | 0.00 | 0.00 | 67 | 1013.5 |
| 20260503225601 | 56 | 60 | 5.0 | 0.0 | 0.00 | 0.00 | 0.00 | 67 | 1013.5 |
| 20260503225502 | 56 | 55 | 6.0 | 0.0 | 0.00 | 0.00 | 0.00 | 67 | 1013.5 |
| 20260503225401 | 56 | 55 | 6.0 | 0.0 | 0.00 | 0.00 | 0.00 | 67 | 1013.5 |
| 20260503225304 | 56 | 60 | 6.0 | 0.0 | 0.00 | 0.00 | 0.00 | 67 | 1013.5 |
| 20260503225201 | 56 | 60 | 6.0 | 0.0 | 0.00 | 0.00 | 0.00 | 67 | 1013.6 |
| 20260503225102 | 56 | 60 | 5.0 | 0.0 | 0.00 | 0.00 | 0.00 | 66 | 1013.6 |
| 20260503225001 | 56 | 60 | 5.0 | 0.0 | 0.00 | 0.00 | 0.00 | 66 | 1013.6 |
| 20260503224902 | 56 | 60 | 5.0 | 0.0 | 0.00 | 0.00 | 0.00 | 66 | 1013.6 |
| 20260503224802 | 56 | 55 | 6.0 | 0.0 | 0.00 | 0.00 | 0.00 | 67 | 1013.6 |
| 20260503224701 | 56 | 55 | 6.0 | 0.0 | 0.00 | 0.00 | 0.00 | 67 | 1013.6 |
| 20260503224602 | 56 | 55 | 6.0 | 0.0 | 0.00 | 0.00 | 0.00 | 67 | 1013.6 |
| 20260503224501 | 56 | 55 | 5.0 | 0.0 | 0.00 | 0.00 | 0.00 | 66 | 1013.6 |
| 20260503224402 | 56 | 55 | 5.0 | 0.0 | 0.00 | 0.00 | 0.00 | 66 | 1013.6 |
| 20260503224301 | 56 | 55 | 5.0 | 0.0 | 0.00 | 0.00 | 0.00 | 66 | 1013.6 |
| 20260503224202 | 56 | 57 | 6.0 | 0.0 | 0.00 | 0.00 | 0.00 | 66 | 1013.6 |
| 20260503224101 | 56 | 57 | 6.0 | 0.0 | 0.00 | 0.00 | 0.00 | 66 | 1013.6 |
| 20260503224002 | 56 | 60 | 5.0 | 0.0 | 0.00 | 0.00 | 0.00 | 66 | 1013.6 |
| 20260503223901 | 56 | 60 | 5.0 | 0.0 | 0.00 | 0.00 | 0.00 | 66 | 1013.6 |
| 20260503223802 | 56 | 67 | 6.0 | 0.0 | 0.00 | 0.00 | 0.00 | 66 | 1013.6 |
| 20260503223702 | 56 | 67 | 6.0 | 0.0 | 0.00 | 0.00 | 0.00 | 66 | 1013.6 |
| 20260503223601 | 56 | 67 | 6.0 | 0.0 | 0.00 | 0.00 | 0.00 | 66 | 1013.7 |
| 20260503223502 | 57 | 67 | 7.0 | 0.0 | 0.00 | 0.00 | 0.00 | 65 | 1013.6 |
| 20260503223401 | 57 | 67 | 7.0 | 0.0 | 0.00 | 0.00 | 0.00 | 65 | 1013.6 |
| 20260503223302 | 57 | 67 | 7.0 | 0.0 | 0.00 | 0.00 | 0.00 | 65 | 1013.6 |
| 20260503223201 | 57 | 55 | 9.0 | 0.0 | 0.00 | 0.00 | 0.00 | 65 | 1013.6 |
| 20260503223102 | 57 | 55 | 9.0 | 0.0 | 0.00 | 0.00 | 0.00 | 65 | 1013.7 |
| 20260503223002 | 57 | 65 | 8.0 | 0.0 | 0.00 | 0.00 | 0.00 | 65 | 1013.6 |
| 20260503222902 | 57 | 65 | 8.0 | 0.0 | 0.00 | 0.00 | 0.00 | 65 | 1013.7 |
| 20260503222802 | 57 | 65 | 8.0 | 0.0 | 0.00 | 0.00 | 0.00 | 65 | 1013.7 |
| 20260503222701 | 57 | 65 | 8.0 | 0.0 | 0.00 | 0.00 | 0.00 | 65 | 1013.7 |
| 20260503222602 | 57 | 65 | 8.0 | 0.0 | 0.00 | 0.00 | 0.00 | 65 | 1013.7 |
| 20260503222501 | 57 | 65 | 6.0 | 0.0 | 0.00 | 0.00 | 0.00 | 64 | 1013.7 |
| 20260503222402 | 57 | 60 | 9.0 | 0.0 | 0.00 | 0.00 | 0.00 | 64 | 1013.8 |
| 20260503222301 | 57 | 60 | 9.0 | 0.0 | 0.00 | 0.00 | 0.00 | 64 | 1013.7 |
| 20260503222201 | 57 | 50 | 6.0 | 0.0 | 0.00 | 0.00 | 0.00 | 64 | 1013.8 |
| 20260503222102 | 57 | 50 | 6.0 | 0.0 | 0.00 | 0.00 | 0.00 | 64 | 1013.8 |
| 20260503222001 | 57 | 60 | 8.0 | 0.0 | 0.00 | 0.00 | 0.00 | 64 | 1013.7 |
| 20260503221902 | 57 | 60 | 8.0 | 0.0 | 0.00 | 0.00 | 0.00 | 64 | 1013.7 |
| 20260503221801 | 57 | 75 | 8.0 | 0.0 | 0.00 | 0.00 | 0.00 | 63 | 1013.8 |
| 20260503221702 | 57 | 75 | 8.0 | 0.0 | 0.00 | 0.00 | 0.00 | 63 | 1013.7 |
| 20260503221602 | 57 | 75 | 8.0 | 0.0 | 0.00 | 0.00 | 0.00 | 63 | 1013.8 |
| 20260503221502 | 57 | 67 | 10.0 | 0.0 | 0.00 | 0.00 | 0.00 | 64 | 1013.8 |
| 20260503221402 | 57 | 67 | 10.0 | 0.0 | 0.00 | 0.00 | 0.00 | 64 | 1013.8 |
| 20260503221302 | 58 | 67 | 7.0 | 0.0 | 0.00 | 0.00 | 0.00 | 63 | 1013.8 |
| 20260503221202 | 58 | 67 | 7.0 | 0.0 | 0.00 | 0.00 | 0.00 | 63 | 1013.8 |
| 20260503221101 | 58 | 67 | 7.0 | 0.0 | 0.00 | 0.00 | 0.00 | 63 | 1013.8 |
| 20260503221002 | 58 | 72 | 13.0 | 0.0 | 0.00 | 0.00 | 0.00 | 63 | 1013.8 |
| 20260503220901 | 58 | 72 | 13.0 | 0.0 | 0.00 | 0.00 | 0.00 | 63 | 1013.8 |
| 20260503220802 | 58 | 70 | 6.0 | 0.0 | 0.00 | 0.00 | 0.00 | 62 | 1013.8 |
| 20260503220702 | 58 | 80 | 11.0 | 0.0 | 0.00 | 0.00 | 0.00 | 62 | 1013.8 |
| 20260503220601 | 58 | 80 | 11.0 | 0.0 | 0.00 | 0.00 | 0.00 | 62 | 1013.8 |
| 20260503220502 | 58 | 80 | 11.0 | 0.0 | 0.00 | 0.00 | 0.00 | 62 | 1013.8 |
| 20260503220401 | 58 | 80 | 11.0 | 0.0 | 0.00 | 0.00 | 0.00 | 62 | 1013.7 |
| 20260503220302 | 58 | 75 | 12.0 | 0.0 | 0.00 | 0.00 | 0.00 | 62 | 1013.8 |
| 20260503220201 | 58 | 75 | 12.0 | 0.0 | 0.00 | 0.00 | 0.00 | 62 | 1013.8 |
| 20260503220002 | 58 | 67 | 15.0 | 0.0 | 0.00 | 0.00 | 0.00 | 62 | 1013.8 |
| 20260503215902 | 58 | 67 | 15.0 | 0.0 | 0.00 | 0.00 | 0.00 | 62 | 1013.7 |
| 20260503215802 | 58 | 72 | 11.0 | 0.0 | 0.00 | 0.00 | 0.00 | 62 | 1013.8 |
| 20260503215702 | 58 | 72 | 11.0 | 0.0 | 0.00 | 0.00 | 0.00 | 62 | 1013.8 |
| 20260503215602 | 58 | 72 | 11.0 | 0.0 | 0.00 | 0.00 | 0.00 | 62 | 1013.8 |
| 20260503215501 | 58 | 72 | 11.0 | 0.0 | 0.00 | 0.00 | 0.00 | 62 | 1013.8 |
| 20260503215402 | 58 | 72 | 11.0 | 0.0 | 0.00 | 0.00 | 0.00 | 62 | 1013.8 |
| 20260503215304 | 58 | 70 | 10.0 | 0.0 | 0.00 | 0.00 | 0.00 | 62 | 1013.8 |
| 20260503215202 | 58 | 70 | 10.0 | 0.0 | 0.00 | 0.00 | 0.00 | 62 | 1013.8 |
| 20260503215101 | 58 | 70 | 10.0 | 0.0 | 0.00 | 0.00 | 0.00 | 62 | 1013.8 |
| 20260503215002 | 58 | 60 | 8.0 | 0.0 | 0.00 | 0.00 | 0.00 | 62 | 1013.8 |
| 20260503214902 | 58 | 60 | 8.0 | 0.0 | 0.00 | 0.00 | 0.00 | 62 | 1013.8 |
| 20260503214801 | 58 | 60 | 8.0 | 0.0 | 0.00 | 0.00 | 0.00 | 62 | 1013.7 |
| 20260503214702 | 58 | 55 | 10.0 | 0.0 | 0.00 | 0.00 | 0.00 | 62 | 1013.7 |
| 20260503214601 | 58 | 55 | 10.0 | 0.0 | 0.00 | 0.00 | 0.00 | 62 | 1013.7 |
| 20260503214502 | 58 | 65 | 11.0 | 0.0 | 0.00 | 0.00 | 0.00 | 61 | 1013.7 |
| 20260503214401 | 58 | 65 | 11.0 | 0.0 | 0.00 | 0.00 | 0.00 | 61 | 1013.7 |
| 20260503214302 | 58 | 65 | 11.0 | 0.0 | 0.00 | 0.00 | 0.00 | 61 | 1013.8 |
| 20260503214202 | 58 | 65 | 12.0 | 0.0 | 0.00 | 0.00 | 0.00 | 61 | 1013.7 |
| 20260503214101 | 58 | 65 | 12.0 | 0.0 | 0.00 | 0.00 | 0.00 | 61 | 1013.7 |
| 20260503214002 | 58 | 67 | 13.0 | 0.0 | 0.00 | 0.00 | 0.00 | 61 | 1013.7 |
| 20260503213901 | 58 | 67 | 13.0 | 0.0 | 0.00 | 0.00 | 0.00 | 61 | 1013.8 |
| 20260503213802 | 58 | 67 | 13.0 | 0.0 | 0.00 | 0.00 | 0.00 | 61 | 1013.7 |
| 20260503213701 | 58 | 67 | 6.0 | 0.0 | 0.00 | 0.00 | 0.00 | 61 | 1013.7 |
| 20260503213602 | 58 | 70 | 8.0 | 0.0 | 0.00 | 0.00 | 0.00 | 61 | 1013.7 |
| 20260503213502 | 58 | 62 | 8.0 | 0.0 | 0.00 | 0.00 | 0.00 | 61 | 1013.7 |
| 20260503213402 | 58 | 62 | 8.0 | 0.0 | 0.00 | 0.00 | 0.00 | 61 | 1013.7 |
| 20260503213302 | 58 | 57 | 13.0 | 0.0 | 0.00 | 0.00 | 0.00 | 62 | 1013.7 |
| 20260503213201 | 58 | 57 | 13.0 | 0.0 | 0.00 | 0.00 | 0.00 | 62 | 1013.7 |
| 20260503213102 | 58 | 60 | 9.0 | 0.0 | 0.00 | 0.00 | 0.00 | 62 | 1013.7 |
| 20260503213001 | 58 | 65 | 6.0 | 0.0 | 0.00 | 0.00 | 0.00 | 62 | 1013.7 |
| 20260503212902 | 58 | 65 | 6.0 | 0.0 | 0.00 | 0.00 | 0.00 | 62 | 1013.7 |
| 20260503212801 | 58 | 65 | 13.0 | 0.0 | 0.00 | 0.00 | 0.00 | 62 | 1013.7 |
| 20260503212702 | 58 | 70 | 9.0 | 0.0 | 0.00 | 0.00 | 0.00 | 61 | 1013.7 |
| 20260503212602 | 58 | 70 | 9.0 | 0.0 | 0.00 | 0.00 | 0.00 | 61 | 1013.7 |
| 20260503212502 | 58 | 70 | 9.0 | 0.0 | 0.00 | 0.00 | 0.00 | 61 | 1013.7 |
| 20260503212402 | 58 | 65 | 8.0 | 0.0 | 0.00 | 0.00 | 0.00 | 61 | 1013.6 |
| 20260503212301 | 58 | 65 | 8.0 | 0.0 | 0.00 | 0.00 | 0.00 | 61 | 1013.6 |
| 20260503212202 | 58 | 70 | 7.0 | 0.0 | 0.00 | 0.00 | 0.00 | 60 | 1013.6 |
| 20260503212101 | 58 | 70 | 7.0 | 0.0 | 0.00 | 0.00 | 0.00 | 60 | 1013.6 |
| 20260503212002 | 58 | 70 | 9.0 | 0.0 | 0.00 | 0.00 | 0.00 | 60 | 1013.6 |
| 20260503211901 | 58 | 70 | 9.0 | 0.0 | 0.00 | 0.00 | 0.00 | 60 | 1013.6 |
| 20260503211802 | 58 | 70 | 9.0 | 0.0 | 0.00 | 0.00 | 0.00 | 60 | 1013.6 |
| 20260503211702 | 59 | 65 | 6.0 | 0.0 | 0.00 | 0.00 | 0.00 | 59 | 1013.6 |
| 20260503211601 | 59 | 65 | 6.0 | 0.0 | 0.00 | 0.00 | 0.00 | 59 | 1013.6 |
| 20260503211502 | 59 | 55 | 13.0 | 0.0 | 0.00 | 0.00 | 0.00 | 59 | 1013.6 |
| 20260503211401 | 59 | 55 | 13.0 | 0.0 | 0.00 | 0.00 | 0.00 | 59 | 1013.6 |
| 20260503211302 | 59 | 55 | 7.0 | 0.0 | 0.00 | 0.00 | 0.00 | 59 | 1013.6 |
| 20260503211201 | 59 | 52 | 8.0 | 0.0 | 0.00 | 0.00 | 0.00 | 59 | 1013.6 |
| 20260503211103 | 59 | 52 | 8.0 | 0.0 | 0.00 | 0.00 | 0.00 | 59 | 1013.6 |
| 20260503211001 | 59 | 52 | 8.0 | 0.0 | 0.00 | 0.00 | 0.00 | 59 | 1013.6 |
| 20260503210901 | 58 | 57 | 10.0 | 0.0 | 0.00 | 0.00 | 0.00 | 60 | 1013.6 |
| 20260503210802 | 58 | 57 | 10.0 | 0.0 | 0.00 | 0.00 | 0.00 | 60 | 1013.6 |
| 20260503210701 | 58 | 62 | 7.0 | 0.0 | 0.00 | 0.00 | 0.00 | 60 | 1013.6 |
| 20260503210602 | 58 | 62 | 7.0 | 0.0 | 0.00 | 0.00 | 0.00 | 60 | 1013.5 |
| 20260503210501 | 58 | 62 | 7.0 | 0.0 | 0.00 | 0.00 | 0.00 | 60 | 1013.6 |
| 20260503210402 | 58 | 62 | 5.0 | 0.0 | 0.00 | 0.00 | 0.00 | 61 | 1013.6 |
| 20260503210302 | 58 | 62 | 5.0 | 0.0 | 0.00 | 0.00 | 0.00 | 61 | 1013.6 |
| 20260503210202 | 58 | 62 | 5.0 | 0.0 | 0.00 | 0.00 | 0.00 | 61 | 1013.5 |
| 20260503210001 | 58 | 65 | 7.0 | 0.0 | 0.00 | 0.00 | 0.00 | 60 | 1013.5 |
| 20260503205902 | 59 | 62 | 6.0 | 0.0 | 0.00 | 0.00 | 0.00 | 59 | 1013.5 |
| 20260503205801 | 59 | 62 | 6.0 | 0.0 | 0.00 | 0.00 | 0.00 | 59 | 1013.6 |
| 20260503205702 | 59 | 62 | 6.0 | 0.0 | 0.00 | 0.00 | 0.00 | 59 | 1013.6 |
| 20260503205602 | 59 | 62 | 6.0 | 0.0 | 0.00 | 0.00 | 0.00 | 58 | 1013.6 |
| 20260503205502 | 59 | 62 | 6.0 | 0.0 | 0.00 | 0.00 | 0.00 | 58 | 1013.6 |
| 20260503205402 | 59 | 62 | 6.0 | 0.0 | 0.00 | 0.00 | 0.00 | 58 | 1013.5 |
| 20260503205303 | 59 | 62 | 6.0 | 0.0 | 0.00 | 0.00 | 0.00 | 58 | 1013.6 |
| 20260503205202 | 59 | 57 | 7.0 | 0.0 | 0.00 | 0.00 | 0.00 | 58 | 1013.5 |
| 20260503205101 | 59 | 62 | 9.0 | 0.0 | 0.00 | 0.00 | 0.00 | 58 | 1013.5 |
| 20260503205002 | 59 | 62 | 9.0 | 0.0 | 0.00 | 0.00 | 0.00 | 58 | 1013.5 |
| 20260503204902 | 59 | 62 | 9.0 | 0.0 | 0.00 | 0.00 | 0.00 | 58 | 1013.3 |
| 20260503204802 | 59 | 62 | 8.0 | 0.0 | 0.00 | 0.00 | 0.00 | 58 | 1013.6 |
| 20260503204702 | 59 | 62 | 8.0 | 0.0 | 0.00 | 0.00 | 0.00 | 58 | 1013.6 |
| 20260503204601 | 59 | 62 | 8.0 | 0.0 | 0.00 | 0.00 | 0.00 | 58 | 1013.6 |
| 20260503204502 | 59 | 62 | 8.0 | 0.0 | 0.00 | 0.00 | 0.00 | 58 | 1013.6 |
| 20260503204401 | 59 | 62 | 8.0 | 0.0 | 0.00 | 0.00 | 0.00 | 58 | 1013.6 |
| 20260503204302 | 59 | 65 | 7.0 | 0.0 | 0.00 | 0.00 | 0.00 | 58 | 1013.6 |
| 20260503204201 | 59 | 65 | 7.0 | 0.0 | 0.00 | 0.00 | 0.00 | 58 | 1013.6 |
| 20260503204102 | 60 | 72 | 7.0 | 0.0 | 0.00 | 0.00 | 0.00 | 57 | 1013.6 |
| 20260503204002 | 60 | 72 | 7.0 | 0.0 | 0.00 | 0.00 | 0.00 | 57 | 1013.6 |
| 20260503203902 | 60 | 75 | 15.0 | 0.0 | 0.00 | 0.00 | 0.00 | 56 | 1013.6 |
| 20260503203802 | 60 | 75 | 15.0 | 0.0 | 0.00 | 0.00 | 0.00 | 56 | 1013.5 |
| 20260503203702 | 60 | 75 | 15.0 | 0.0 | 0.00 | 0.00 | 0.00 | 56 | 1013.5 |
| 20260503203602 | 60 | 67 | 11.0 | 0.0 | 0.00 | 0.00 | 0.00 | 55 | 1013.5 |
| 20260503203501 | 60 | 67 | 11.0 | 0.0 | 0.00 | 0.00 | 0.00 | 55 | 1013.5 |
| 20260503203402 | 60 | 65 | 13.0 | 0.0 | 0.00 | 0.00 | 0.00 | 55 | 1013.5 |
| 20260503203301 | 60 | 65 | 13.0 | 0.0 | 0.00 | 0.00 | 0.00 | 55 | 1013.5 |
| 20260503203202 | 60 | 65 | 13.0 | 0.0 | 0.00 | 0.00 | 0.00 | 55 | 1013.6 |
| 20260503203101 | 60 | 65 | 13.0 | 0.0 | 0.00 | 0.00 | 0.00 | 55 | 1013.5 |
| 20260503203002 | 60 | 65 | 13.0 | 0.0 | 0.00 | 0.00 | 0.00 | 55 | 1013.5 |
| 20260503202902 | 60 | 65 | 8.0 | 0.0 | 0.00 | 0.00 | 0.00 | 55 | 1013.5 |
| 20260503202801 | 60 | 70 | 6.0 | 0.0 | 0.00 | 0.00 | 0.00 | 55 | 1013.4 |
| 20260503202702 | 60 | 70 | 6.0 | 0.0 | 0.00 | 0.00 | 0.00 | 55 | 1013.5 |
| 20260503202601 | 60 | 62 | 7.0 | 0.0 | 0.00 | 0.00 | 0.00 | 54 | 1013.5 |
| 20260503202502 | 60 | 62 | 7.0 | 0.0 | 0.00 | 0.00 | 0.00 | 54 | 1013.5 |
| 20260503202401 | 60 | 62 | 7.0 | 0.0 | 0.00 | 0.00 | 0.00 | 54 | 1013.5 |
| 20260503202304 | 60 | 62 | 7.0 | 0.0 | 0.00 | 0.00 | 0.00 | 54 | 1013.5 |
| 20260503202202 | 60 | 62 | 7.0 | 0.0 | 0.00 | 0.00 | 0.00 | 54 | 1013.6 |
| 20260503202101 | 60 | 62 | 7.0 | 0.0 | 0.00 | 0.00 | 0.00 | 54 | 1013.5 |
| 20260503202002 | 60 | 62 | 7.0 | 0.0 | 0.00 | 0.00 | 0.00 | 54 | 1013.5 |
| 20260503201901 | 60 | 62 | 7.0 | 0.0 | 0.00 | 0.00 | 0.00 | 54 | 1013.5 |
| 20260503201802 | 61 | 65 | 10.0 | 0.0 | 0.00 | 0.00 | 0.00 | 54 | 1013.5 |
| 20260503201701 | 61 | 65 | 10.0 | 0.0 | 0.00 | 0.00 | 0.00 | 54 | 1013.5 |
| 20260503201602 | 60 | 65 | 10.0 | 0.0 | 0.00 | 0.00 | 0.00 | 54 | 1013.5 |
| 20260503201501 | 60 | 65 | 10.0 | 0.0 | 0.00 | 0.00 | 0.00 | 54 | 1013.5 |
| 20260503201401 | 61 | 72 | 9.0 | 0.0 | 0.00 | 0.00 | 0.00 | 53 | 1013.5 |
| 20260503201302 | 61 | 72 | 9.0 | 0.0 | 0.00 | 0.00 | 0.00 | 53 | 1013.5 |
| 20260503201201 | 61 | 72 | 9.0 | 0.0 | 0.00 | 0.00 | 0.00 | 53 | 1013.4 |
| 20260503201102 | 61 | 70 | 10.0 | 0.0 | 0.00 | 0.00 | 0.00 | 53 | 1013.4 |
| 20260503201001 | 61 | 70 | 10.0 | 0.0 | 0.00 | 0.00 | 0.00 | 53 | 1013.5 |
| 20260503200902 | 61 | 70 | 10.0 | 0.0 | 0.00 | 0.00 | 0.00 | 53 | 1013.5 |
| 20260503200802 | 62 | 55 | 10.0 | 0.0 | 0.00 | 0.00 | 0.00 | 51 | 1013.5 |
| 20260503200701 | 62 | 55 | 10.0 | 0.0 | 0.00 | 0.00 | 0.00 | 51 | 1013.4 |
| 20260503200602 | 62 | 55 | 10.0 | 0.0 | 0.00 | 0.00 | 0.00 | 51 | 1013.4 |
| 20260503200501 | 62 | 55 | 10.0 | 0.0 | 0.00 | 0.00 | 0.00 | 51 | 1013.4 |
| 20260503200402 | 62 | 55 | 10.0 | 0.0 | 0.00 | 0.00 | 0.00 | 51 | 1013.4 |
| 20260503200301 | 62 | 52 | 9.0 | 0.0 | 0.00 | 0.00 | 0.00 | 52 | 1013.4 |
| 20260503200202 | 62 | 52 | 9.0 | 0.0 | 0.00 | 0.00 | 0.00 | 52 | 1013.4 |
| 20260503200102 | 62 | 52 | 9.0 | 0.0 | 0.00 | 0.00 | 0.00 | 52 | 1013.4 |
| 20260503200001 | 62 | 52 | 9.0 | 0.0 | 0.00 | 0.00 | 0.00 | 52 | 1013.4 |
| 20260503195902 | 62 | 52 | 9.0 | 0.0 | 0.00 | 0.00 | 0.00 | 52 | 1013.3 |
| 20260503195801 | 62 | 65 | 14.0 | 0.0 | 0.00 | 0.00 | 0.00 | 52 | 1013.4 |
| 20260503195702 | 62 | 65 | 14.0 | 0.0 | 0.00 | 0.00 | 0.00 | 52 | 1013.3 |
| 20260503195601 | 62 | 65 | 9.0 | 0.0 | 0.00 | 0.00 | 0.00 | 52 | 1013.3 |
| 20260503195502 | 62 | 55 | 9.0 | 0.0 | 0.00 | 0.00 | 0.00 | 52 | 1013.3 |
| 20260503195401 | 62 | 55 | 9.0 | 0.0 | 0.00 | 0.00 | 0.00 | 52 | 1013.3 |
| 20260503195301 | 62 | 47 | 8.0 | 0.0 | 0.00 | 0.00 | 0.00 | 52 | 1013.3 |
| 20260503195202 | 62 | 47 | 8.0 | 0.0 | 0.00 | 0.00 | 0.00 | 52 | 1013.2 |
| 20260503195101 | 62 | 45 | 9.0 | 0.0 | 0.00 | 0.00 | 0.00 | 52 | 1013.3 |
| 20260503195002 | 62 | 45 | 9.0 | 0.0 | 0.00 | 0.00 | 0.00 | 52 | 1013.3 |
| 20260503194901 | 62 | 45 | 9.0 | 0.0 | 0.00 | 0.00 | 0.00 | 52 | 1013.2 |
| 20260503194802 | 62 | 45 | 6.0 | 0.0 | 0.00 | 0.00 | 0.00 | 51 | 1013.2 |
| 20260503194701 | 62 | 45 | 6.0 | 0.0 | 0.00 | 0.00 | 0.00 | 51 | 1013.2 |
| 20260503194602 | 62 | 45 | 6.0 | 0.0 | 0.00 | 0.00 | 0.00 | 51 | 1013.3 |
| 20260503194402 | 62 | 42 | 10.0 | 0.0 | 0.00 | 0.00 | 0.00 | 51 | 1013.2 |
| 20260503194302 | 62 | 42 | 10.0 | 0.0 | 0.00 | 0.00 | 0.00 | 51 | 1013.2 |
| 20260503194201 | 62 | 45 | 11.0 | 0.0 | 0.00 | 0.00 | 0.00 | 51 | 1013.2 |
| 20260503194104 | 62 | 45 | 11.0 | 0.0 | 0.00 | 0.00 | 0.00 | 51 | 1013.1 |
| 20260503194001 | 62 | 45 | 8.0 | 0.0 | 0.00 | 0.00 | 0.00 | 51 | 1013.2 |
| 20260503193902 | 62 | 45 | 8.0 | 0.0 | 0.00 | 0.00 | 0.00 | 51 | 1013.2 |
| 20260503193801 | 62 | 45 | 10.0 | 0.0 | 0.00 | 0.00 | 0.00 | 51 | 1013.1 |
| 20260503193702 | 62 | 45 | 10.0 | 0.0 | 0.00 | 0.00 | 0.00 | 51 | 1013.1 |
| 20260503193601 | 62 | 45 | 10.0 | 0.0 | 0.00 | 0.00 | 0.00 | 51 | 1013.2 |
| 20260503193501 | 62 | 40 | 12.0 | 0.0 | 0.00 | 0.00 | 0.00 | 51 | 1013.1 |
| 20260503193402 | 62 | 40 | 12.0 | 0.0 | 0.00 | 0.00 | 0.00 | 51 | 1013.1 |
| 20260503193301 | 62 | 40 | 12.0 | 0.0 | 0.00 | 0.00 | 0.00 | 51 | 1013.1 |
| 20260503193202 | 62 | 37 | 10.0 | 0.0 | 0.00 | 0.00 | 0.00 | 51 | 1013.1 |
| 20260503193101 | 62 | 37 | 10.0 | 0.0 | 0.00 | 0.00 | 0.00 | 51 | 1013.1 |
| 20260503193002 | 62 | 40 | 11.0 | 0.0 | 0.00 | 0.00 | 0.00 | 51 | 1012.9 |
| 20260503192902 | 62 | 40 | 11.0 | 0.0 | 0.00 | 0.00 | 0.00 | 51 | 1012.9 |
| 20260503192801 | 62 | 40 | 11.0 | 0.0 | 0.00 | 0.00 | 0.00 | 51 | 1012.9 |
| 20260503192702 | 62 | 40 | 11.0 | 0.0 | 0.00 | 0.00 | 0.00 | 51 | 1012.9 |
| 20260503192601 | 62 | 40 | 11.0 | 0.0 | 0.00 | 0.00 | 0.00 | 51 | 1012.9 |
| 20260503192502 | 62 | 45 | 9.0 | 0.0 | 0.00 | 0.00 | 0.00 | 51 | 1012.9 |
| 20260503192401 | 62 | 45 | 9.0 | 0.0 | 0.00 | 0.00 | 0.00 | 51 | 1012.9 |
| 20260503192305 | 62 | 45 | 9.0 | 0.0 | 0.00 | 0.00 | 0.00 | 51 | 1012.9 |
| 20260503192202 | 62 | 45 | 9.0 | 0.0 | 0.00 | 0.00 | 0.00 | 51 | 1012.9 |
| 20260503192101 | 62 | 45 | 9.0 | 0.0 | 0.00 | 0.00 | 0.00 | 51 | 1012.9 |
| 20260503192002 | 62 | 45 | 9.0 | 0.0 | 0.00 | 0.00 | 0.00 | 51 | 1012.9 |
| 20260503191901 | 62 | 45 | 9.0 | 0.0 | 0.00 | 0.00 | 0.00 | 51 | 1012.9 |
| 20260503191802 | 62 | 42 | 10.0 | 0.0 | 0.00 | 0.00 | 0.00 | 51 | 1012.8 |
| 20260503191701 | 62 | 42 | 10.0 | 0.0 | 0.00 | 0.00 | 0.00 | 51 | 1012.8 |
| 20260503191602 | 62 | 42 | 10.0 | 0.0 | 0.00 | 0.00 | 0.00 | 51 | 1012.9 |
| 20260503191502 | 62 | 55 | 7.0 | 0.0 | 0.00 | 0.00 | 0.00 | 51 | 1012.8 |
| 20260503191402 | 62 | 55 | 7.0 | 0.0 | 0.00 | 0.00 | 0.00 | 51 | 1012.8 |
| 20260503191302 | 62 | 55 | 10.0 | 0.0 | 0.00 | 0.00 | 0.00 | 51 | 1012.8 |
| 20260503191201 | 62 | 55 | 10.0 | 0.0 | 0.00 | 0.00 | 0.00 | 51 | 1012.8 |
| 20260503191102 | 62 | 55 | 10.0 | 0.0 | 0.00 | 0.00 | 0.00 | 51 | 1012.8 |
| 20260503191001 | 62 | 50 | 13.0 | 0.0 | 0.00 | 0.00 | 0.00 | 51 | 1012.8 |
| 20260503190902 | 62 | 47 | 6.0 | 0.0 | 0.00 | 0.00 | 0.00 | 51 | 1012.8 |
| 20260503190801 | 62 | 47 | 6.0 | 0.0 | 0.00 | 0.00 | 0.00 | 51 | 1012.8 |
| 20260503190702 | 62 | 45 | 9.0 | 0.0 | 0.00 | 0.00 | 0.00 | 51 | 1012.8 |
| 20260503190602 | 62 | 45 | 9.0 | 0.0 | 0.00 | 0.00 | 0.00 | 51 | 1012.8 |
| 20260503190502 | 62 | 45 | 6.0 | 0.0 | 0.00 | 0.00 | 0.00 | 51 | 1012.8 |
| 20260503190402 | 62 | 47 | 9.0 | 0.0 | 0.00 | 0.00 | 0.00 | 51 | 1012.8 |
| 20260503190301 | 62 | 47 | 9.0 | 0.0 | 0.00 | 0.00 | 0.00 | 51 | 1012.7 |
| 20260503190202 | 62 | 42 | 8.0 | 0.0 | 0.00 | 0.00 | 0.00 | 50 | 1012.8 |
| 20260503190002 | 62 | 40 | 8.0 | 0.0 | 0.00 | 0.00 | 0.00 | 50 | 1012.8 |
| 20260503185901 | 62 | 40 | 8.0 | 0.0 | 0.00 | 0.00 | 0.00 | 50 | 1012.8 |
| 20260503185802 | 62 | 40 | 13.0 | 0.0 | 0.00 | 0.00 | 0.00 | 51 | 1012.8 |
| 20260503185702 | 62 | 40 | 13.0 | 0.0 | 0.00 | 0.00 | 0.00 | 51 | 1012.8 |
| 20260503185601 | 62 | 42 | 7.0 | 0.0 | 0.00 | 0.00 | 0.00 | 50 | 1012.8 |
| 20260503185502 | 62 | 45 | 8.0 | 0.0 | 0.00 | 0.00 | 0.00 | 51 | 1012.7 |
| 20260503185401 | 62 | 45 | 8.0 | 0.0 | 0.00 | 0.00 | 0.00 | 51 | 1012.7 |
| 20260503185304 | 62 | 45 | 6.0 | 0.0 | 0.00 | 0.00 | 0.00 | 50 | 1012.7 |
| 20260503185202 | 62 | 45 | 11.0 | 0.0 | 0.00 | 0.00 | 0.00 | 50 | 1012.7 |
| 20260503185101 | 62 | 45 | 11.0 | 0.0 | 0.00 | 0.00 | 0.00 | 50 | 1012.7 |
| 20260503185002 | 62 | 40 | 12.0 | 0.0 | 0.00 | 0.00 | 0.00 | 50 | 1012.7 |
| 20260503184901 | 62 | 40 | 12.0 | 0.0 | 0.00 | 0.00 | 0.00 | 50 | 1012.7 |
| 20260503184802 | 62 | 40 | 12.0 | 0.0 | 0.00 | 0.00 | 0.00 | 50 | 1012.6 |
| 20260503184701 | 62 | 40 | 10.0 | 0.0 | 0.00 | 0.00 | 0.00 | 50 | 1012.7 |
| 20260503184602 | 62 | 40 | 10.0 | 0.0 | 0.00 | 0.00 | 0.00 | 50 | 1012.7 |
| 20260503184501 | 62 | 40 | 6.0 | 0.0 | 0.00 | 0.00 | 0.00 | 49 | 1012.7 |
| 20260503184402 | 62 | 47 | 13.0 | 0.0 | 0.00 | 0.00 | 0.00 | 49 | 1012.7 |
| 20260503184302 | 62 | 47 | 13.0 | 0.0 | 0.00 | 0.00 | 0.00 | 49 | 1012.7 |
| 20260503184201 | 62 | 47 | 13.0 | 0.0 | 0.00 | 0.00 | 0.00 | 49 | 1012.7 |
| 20260503184102 | 62 | 52 | 7.0 | 0.0 | 0.00 | 0.00 | 0.00 | 49 | 1012.6 |
| 20260503184001 | 62 | 55 | 6.0 | 0.0 | 0.00 | 0.00 | 0.00 | 49 | 1012.6 |
| 20260503183902 | 62 | 50 | 8.0 | 0.0 | 0.00 | 0.00 | 0.00 | 49 | 1012.6 |
| 20260503183802 | 62 | 50 | 8.0 | 0.0 | 0.00 | 0.00 | 0.00 | 49 | 1012.6 |
| 20260503183702 | 62 | 42 | 14.0 | 0.0 | 0.00 | 0.00 | 0.00 | 49 | 1012.6 |
| 20260503183602 | 62 | 35 | 6.0 | 0.0 | 0.00 | 0.00 | 0.00 | 49 | 1012.6 |
| 20260503183501 | 62 | 35 | 6.0 | 0.0 | 0.00 | 0.00 | 0.00 | 49 | 1012.6 |
| 20260503183402 | 62 | 40 | 10.0 | 0.0 | 0.00 | 0.00 | 0.00 | 49 | 1012.6 |
| 20260503183301 | 62 | 40 | 10.0 | 0.0 | 0.00 | 0.00 | 0.00 | 49 | 1012.5 |
| 20260503183202 | 63 | 47 | 13.0 | 0.0 | 0.00 | 0.00 | 0.00 | 48 | 1012.5 |
| 20260503183101 | 63 | 47 | 13.0 | 0.0 | 0.00 | 0.00 | 0.00 | 48 | 1012.5 |
| 20260503183002 | 63 | 47 | 6.0 | 0.0 | 0.00 | 0.00 | 0.00 | 48 | 1012.5 |
| 20260503182902 | 63 | 47 | 6.0 | 0.0 | 0.00 | 0.00 | 0.00 | 48 | 1012.5 |
| 20260503182801 | 63 | 47 | 6.0 | 0.0 | 0.00 | 0.00 | 0.00 | 48 | 1012.6 |
| 20260503182702 | 63 | 47 | 6.0 | 0.0 | 0.00 | 0.00 | 0.00 | 48 | 1012.5 |
| 20260503182601 | 63 | 50 | 7.0 | 0.0 | 0.00 | 0.00 | 0.00 | 47 | 1012.5 |
| 20260503182502 | 63 | 50 | 7.0 | 0.0 | 0.00 | 0.00 | 0.00 | 47 | 1012.5 |
| 20260503182402 | 63 | 45 | 11.0 | 0.0 | 0.00 | 0.00 | 0.00 | 47 | 1012.5 |
| 20260503182304 | 63 | 45 | 11.0 | 0.0 | 0.00 | 0.00 | 0.00 | 47 | 1012.5 |
| 20260503182202 | 63 | 47 | 10.0 | 0.0 | 0.00 | 0.00 | 0.00 | 47 | 1012.5 |
| 20260503182101 | 63 | 47 | 10.0 | 0.0 | 0.00 | 0.00 | 0.00 | 47 | 1012.4 |
| 20260503182002 | 63 | 47 | 10.0 | 0.0 | 0.00 | 0.00 | 0.00 | 47 | 1012.4 |
| 20260503181901 | 63 | 42 | 9.0 | 0.0 | 0.00 | 0.00 | 0.00 | 47 | 1012.5 |
| 20260503181802 | 63 | 42 | 9.0 | 0.0 | 0.00 | 0.00 | 0.00 | 47 | 1012.4 |
| 20260503181701 | 62 | 42 | 14.0 | 0.0 | 0.00 | 0.00 | 0.00 | 48 | 1012.5 |
| 20260503181602 | 62 | 42 | 14.0 | 0.0 | 0.00 | 0.00 | 0.00 | 48 | 1012.4 |
| 20260503181502 | 63 | 45 | 6.0 | 0.0 | 0.00 | 0.00 | 0.00 | 48 | 1012.4 |
| 20260503181402 | 63 | 40 | 9.0 | 0.0 | 0.00 | 0.00 | 0.00 | 48 | 1012.4 |
| 20260503181302 | 63 | 40 | 9.0 | 0.0 | 0.00 | 0.00 | 0.00 | 48 | 1012.4 |
| 20260503181202 | 62 | 40 | 12.0 | 0.0 | 0.00 | 0.00 | 0.00 | 48 | 1012.4 |
| 20260503181102 | 62 | 40 | 12.0 | 0.0 | 0.00 | 0.00 | 0.00 | 48 | 1012.4 |
| 20260503180902 | 62 | 37 | 10.0 | 0.0 | 0.00 | 0.00 | 0.00 | 49 | 1012.4 |
| 20260503180801 | 62 | 37 | 10.0 | 0.0 | 0.00 | 0.00 | 0.00 | 49 | 1012.4 |
| 20260503180702 | 62 | 47 | 6.0 | 0.0 | 0.00 | 0.00 | 0.00 | 48 | 1012.4 |
| 20260503180601 | 62 | 47 | 6.0 | 0.0 | 0.00 | 0.00 | 0.00 | 48 | 1012.4 |
| 20260503180502 | 62 | 47 | 13.0 | 0.0 | 0.00 | 0.00 | 0.00 | 48 | 1012.4 |
| 20260503180402 | 62 | 45 | 5.0 | 0.0 | 0.00 | 0.00 | 0.00 | 48 | 1012.4 |
| 20260503180302 | 62 | 45 | 5.0 | 0.0 | 0.00 | 0.00 | 0.00 | 48 | 1012.3 |
| 20260503180202 | 62 | 45 | 5.0 | 0.0 | 0.00 | 0.00 | 0.00 | 48 | 1012.4 |
| 20260503180002 | 62 | 47 | 7.0 | 0.0 | 0.00 | 0.00 | 0.00 | 49 | 1012.3 |
| 20260503175901 | 62 | 42 | 7.0 | 0.0 | 0.00 | 0.00 | 0.00 | 48 | 1012.4 |
| 20260503175802 | 62 | 42 | 7.0 | 0.0 | 0.00 | 0.00 | 0.00 | 48 | 1012.4 |
| 20260503175702 | 62 | 42 | 7.0 | 0.0 | 0.00 | 0.00 | 0.00 | 48 | 1012.4 |
| 20260503175601 | 62 | 47 | 5.0 | 0.0 | 0.00 | 0.00 | 0.00 | 48 | 1012.4 |
| 20260503175502 | 62 | 47 | 5.0 | 0.0 | 0.00 | 0.00 | 0.00 | 48 | 1012.4 |
| 20260503175401 | 62 | 47 | 5.0 | 0.0 | 0.00 | 0.00 | 0.00 | 48 | 1012.3 |
| 20260503175304 | 62 | 52 | 6.0 | 0.0 | 0.00 | 0.00 | 0.00 | 47 | 1012.4 |
| 20260503175201 | 62 | 52 | 6.0 | 0.0 | 0.00 | 0.00 | 0.00 | 47 | 1012.4 |
| 20260503175102 | 62 | 52 | 6.0 | 0.0 | 0.00 | 0.00 | 0.00 | 47 | 1012.4 |
| 20260503175002 | 63 | 37 | 5.0 | 0.0 | 0.00 | 0.00 | 0.00 | 47 | 1012.4 |
| 20260503174902 | 63 | 37 | 5.0 | 0.0 | 0.00 | 0.00 | 0.00 | 47 | 1012.3 |
| 20260503174802 | 63 | 37 | 6.0 | 0.0 | 0.00 | 0.00 | 0.00 | 47 | 1012.3 |
| 20260503174701 | 63 | 37 | 6.0 | 0.0 | 0.00 | 0.00 | 0.00 | 47 | 1012.3 |
| 20260503174602 | 63 | 27 | 7.0 | 0.0 | 0.00 | 0.00 | 0.00 | 47 | 1012.3 |
| 20260503174501 | 63 | 27 | 7.0 | 0.0 | 0.00 | 0.00 | 0.00 | 47 | 1012.4 |
| 20260503174402 | 63 | 27 | 7.0 | 0.0 | 0.00 | 0.00 | 0.00 | 47 | 1012.3 |
| 20260503174302 | 63 | 32 | 5.0 | 0.0 | 0.00 | 0.00 | 0.00 | 48 | 1012.3 |
| 20260503174202 | 63 | 32 | 5.0 | 0.0 | 0.00 | 0.00 | 0.00 | 48 | 1012.4 |
| 20260503174102 | 63 | 32 | 5.0 | 0.0 | 0.00 | 0.00 | 0.00 | 48 | 1012.3 |
| 20260503174002 | 63 | 32 | 5.0 | 0.0 | 0.00 | 0.00 | 0.00 | 48 | 1012.3 |
| 20260503173902 | 63 | 32 | 5.0 | 0.0 | 0.00 | 0.00 | 0.00 | 48 | 1012.3 |
| 20260503173801 | 63 | 35 | 5.0 | 0.0 | 0.00 | 0.00 | 0.00 | 47 | 1012.3 |
| 20260503173702 | 63 | 35 | 5.0 | 0.0 | 0.00 | 0.00 | 0.00 | 47 | 1012.3 |
| 20260503173602 | 63 | 32 | 4.0 | 0.0 | 0.00 | 0.00 | 0.00 | 47 | 1012.3 |
| 20260503173502 | 63 | 32 | 4.0 | 0.0 | 0.00 | 0.00 | 0.00 | 47 | 1012.3 |
| 20260503173401 | 63 | 32 | 6.0 | 0.0 | 0.00 | 0.00 | 0.00 | 46 | 1012.3 |
| 20260503173302 | 63 | 32 | 6.0 | 0.0 | 0.00 | 0.00 | 0.00 | 46 | 1012.3 |
| 20260503173201 | 63 | 32 | 6.0 | 0.0 | 0.00 | 0.00 | 0.00 | 46 | 1012.3 |
| 20260503173102 | 64 | 30 | 6.0 | 0.0 | 0.00 | 0.00 | 0.00 | 46 | 1012.3 |
| 20260503173001 | 64 | 30 | 6.0 | 0.0 | 0.00 | 0.00 | 0.00 | 46 | 1012.3 |
| 20260503172902 | 64 | 30 | 6.0 | 0.0 | 0.00 | 0.00 | 0.00 | 46 | 1012.3 |
| 20260503172802 | 64 | 30 | 6.0 | 0.0 | 0.00 | 0.00 | 0.00 | 46 | 1012.3 |
| 20260503172701 | 64 | 30 | 6.0 | 0.0 | 0.00 | 0.00 | 0.00 | 46 | 1012.3 |
| 20260503172602 | 64 | 35 | 6.0 | 0.0 | 0.00 | 0.00 | 0.00 | 46 | 1012.3 |
| 20260503172501 | 64 | 35 | 6.0 | 0.0 | 0.00 | 0.00 | 0.00 | 46 | 1012.2 |
| 20260503172402 | 64 | 35 | 6.0 | 0.0 | 0.00 | 0.00 | 0.00 | 46 | 1012.2 |
| 20260503172301 | 64 | 35 | 5.0 | 0.0 | 0.00 | 0.00 | 0.00 | 46 | 1012.3 |
| 20260503172202 | 64 | 35 | 5.0 | 0.0 | 0.00 | 0.00 | 0.00 | 46 | 1012.3 |
| 20260503172102 | 64 | 32 | 8.0 | 0.0 | 0.00 | 0.00 | 0.00 | 46 | 1012.3 |
| 20260503172002 | 64 | 32 | 8.0 | 0.0 | 0.00 | 0.00 | 0.00 | 46 | 1012.3 |
| 20260503171902 | 64 | 32 | 8.0 | 0.0 | 0.00 | 0.00 | 0.00 | 46 | 1012.2 |
| 20260503171801 | 64 | 25 | 8.0 | 0.0 | 0.00 | 0.00 | 0.00 | 46 | 1012.3 |
| 20260503171702 | 64 | 25 | 8.0 | 0.0 | 0.00 | 0.00 | 0.00 | 46 | 1012.2 |
| 20260503171601 | 64 | 25 | 8.0 | 0.0 | 0.00 | 0.00 | 0.00 | 46 | 1012.3 |
| 20260503171502 | 64 | 25 | 5.0 | 0.0 | 0.00 | 0.00 | 0.00 | 45 | 1012.2 |
| 20260503171402 | 64 | 25 | 5.0 | 0.0 | 0.00 | 0.00 | 0.00 | 45 | 1012.3 |
| 20260503171302 | 64 | 25 | 5.0 | 0.0 | 0.00 | 0.00 | 0.00 | 45 | 1012.2 |
| 20260503171202 | 64 | 25 | 5.0 | 0.0 | 0.00 | 0.00 | 0.00 | 45 | 1012.2 |
| 20260503171101 | 64 | 25 | 5.0 | 0.0 | 0.00 | 0.00 | 0.00 | 45 | 1012.2 |
| 20260503171002 | 64 | 20 | 6.0 | 0.0 | 0.00 | 0.00 | 0.00 | 46 | 1012.2 |
| 20260503170901 | 64 | 20 | 6.0 | 0.0 | 0.00 | 0.00 | 0.00 | 46 | 1012.3 |
| 20260503170802 | 64 | 22 | 5.0 | 0.0 | 0.00 | 0.00 | 0.00 | 46 | 1012.3 |
| 20260503170701 | 64 | 22 | 5.0 | 0.0 | 0.00 | 0.00 | 0.00 | 46 | 1012.3 |
| 20260503170602 | 64 | 17 | 5.0 | 0.0 | 0.00 | 0.00 | 0.00 | 45 | 1012.3 |
| 20260503170501 | 64 | 17 | 5.0 | 0.0 | 0.00 | 0.00 | 0.00 | 45 | 1012.3 |
| 20260503170402 | 64 | 17 | 5.0 | 0.0 | 0.00 | 0.00 | 0.00 | 45 | 1012.3 |
| 20260503170302 | 65 | 15 | 5.0 | 0.0 | 0.00 | 0.00 | 0.00 | 44 | 1012.3 |
| 20260503170201 | 65 | 15 | 5.0 | 0.0 | 0.00 | 0.00 | 0.00 | 44 | 1012.3 |
| 20260503160201 | 66 | 32 | 5.0 | 0.0 | 0.00 | 0.00 | 0.00 | 46 | 1012.8 |
| 20260503151002 | 65 | 27 | 11.0 | 0.0 | 0.00 | 0.00 | 0.00 | 43 | 1013.2 |
| 20260503150901 | 65 | 27 | 11.0 | 0.0 | 0.00 | 0.00 | 0.00 | 43 | 1013.1 |
| 20260503150802 | 65 | 25 | 5.0 | 0.0 | 0.00 | 0.00 | 0.00 | 43 | 1013.1 |
| 20260503150701 | 65 | 25 | 5.0 | 0.0 | 0.00 | 0.00 | 0.00 | 43 | 1013.2 |
| 20260503150602 | 65 | 20 | 7.0 | 0.0 | 0.00 | 0.00 | 0.00 | 42 | 1013.2 |
| 20260503150501 | 65 | 20 | 7.0 | 0.0 | 0.00 | 0.00 | 0.00 | 42 | 1013.2 |
| 20260503150401 | 65 | 20 | 7.0 | 0.0 | 0.00 | 0.00 | 0.00 | 42 | 1013.1 |
| 20260503150302 | 65 | 20 | 10.0 | 0.0 | 0.00 | 0.00 | 0.00 | 41 | 1013.2 |
| 20260503150201 | 65 | 20 | 10.0 | 0.0 | 0.00 | 0.00 | 0.00 | 41 | 1013.2 |
| 20260503140302 | 65 | 15 | 9.0 | 0.0 | 0.00 | 0.00 | 0.00 | 42 | 1013.5 |
| 20260503131402 | 65 | 22 | 6.0 | 0.0 | 0.00 | 0.00 | 0.00 | 43 | 1013.9 |
| 20260503131301 | 65 | 22 | 11.0 | 0.0 | 0.00 | 0.00 | 0.00 | 42 | 1013.9 |
| 20260503131202 | 65 | 22 | 11.0 | 0.0 | 0.00 | 0.00 | 0.00 | 42 | 1013.9 |
| 20260503131101 | 65 | 20 | 11.0 | 0.0 | 0.00 | 0.00 | 0.00 | 44 | 1013.9 |
| 20260503131002 | 65 | 20 | 11.0 | 0.0 | 0.00 | 0.00 | 0.00 | 44 | 1014.0 |
| 20260503130901 | 65 | 20 | 12.0 | 0.0 | 0.00 | 0.00 | 0.00 | 44 | 1013.9 |
| 20260503130802 | 65 | 20 | 12.0 | 0.0 | 0.00 | 0.00 | 0.00 | 44 | 1014.0 |
| 20260503130701 | 65 | 25 | 13.0 | 0.0 | 0.00 | 0.00 | 0.00 | 44 | 1014.0 |
| 20260503130601 | 65 | 25 | 13.0 | 0.0 | 0.00 | 0.00 | 0.00 | 44 | 1014.0 |
| 20260503130502 | 65 | 25 | 13.0 | 0.0 | 0.00 | 0.00 | 0.00 | 44 | 1014.1 |
| 20260503130401 | 65 | 35 | 9.0 | 0.0 | 0.00 | 0.00 | 0.00 | 45 | 1014.0 |
| 20260503130302 | 65 | 35 | 9.0 | 0.0 | 0.00 | 0.00 | 0.00 | 45 | 1014.0 |
| 20260503130201 | 65 | 35 | 9.0 | 0.0 | 0.00 | 0.00 | 0.00 | 45 | 1014.0 |
| 20260503120202 | 64 | 42 | 11.0 | 0.0 | 0.00 | 0.00 | 0.00 | 50 | 1014.3 |
| 20260503110802 | 64 | 25 | 8.0 | 0.0 | 0.00 | 0.00 | 0.00 | 46 | 1014.7 |
| 20260503110702 | 64 | 25 | 8.0 | 0.0 | 0.00 | 0.00 | 0.00 | 46 | 1014.7 |
| 20260503110601 | 64 | 37 | 9.0 | 0.0 | 0.00 | 0.00 | 0.00 | 46 | 1014.7 |
| 20260503110502 | 64 | 37 | 9.0 | 0.0 | 0.00 | 0.00 | 0.00 | 46 | 1014.7 |
| 20260503110401 | 64 | 37 | 9.0 | 0.0 | 0.00 | 0.00 | 0.00 | 46 | 1014.7 |
| 20260503110302 | 64 | 35 | 11.0 | 0.0 | 0.00 | 0.00 | 0.00 | 46 | 1014.7 |
| 20260503110202 | 64 | 35 | 11.0 | 0.0 | 0.00 | 0.00 | 0.00 | 46 | 1014.7 |
| 20260503100202 | 65 | 25 | 10.0 | 0.0 | 0.00 | 0.00 | 0.00 | 48 | 1015.2 |
| 20260503090502 | 67 | 35 | 11.0 | 0.0 | 0.00 | 0.00 | 0.00 | 49 | 1015.1 |
| 20260503090401 | 67 | 35 | 11.0 | 0.0 | 0.00 | 0.00 | 0.00 | 49 | 1015.1 |
| 20260503090302 | 67 | 25 | 11.0 | 0.0 | 0.00 | 0.00 | 0.00 | 49 | 1015.1 |
| 20260503090201 | 67 | 25 | 11.0 | 0.0 | 0.00 | 0.00 | 0.00 | 49 | 1015.1 |
| 20260503081601 | 67 | 45 | 8.0 | 0.0 | 0.00 | 0.00 | 0.00 | 48 | 1014.9 |
| 20260503081502 | 67 | 32 | 8.0 | 0.0 | 0.00 | 0.00 | 0.00 | 46 | 1014.9 |
| 20260503081401 | 67 | 32 | 8.0 | 0.0 | 0.00 | 0.00 | 0.00 | 46 | 1014.9 |
| 20260503081302 | 67 | 45 | 8.0 | 0.0 | 0.00 | 0.00 | 0.00 | 47 | 1015.1 |
| 20260503081202 | 67 | 45 | 8.0 | 0.0 | 0.00 | 0.00 | 0.00 | 47 | 1014.9 |
| 20260503081102 | 67 | 45 | 8.0 | 0.0 | 0.00 | 0.00 | 0.00 | 47 | 1014.9 |
| 20260503081002 | 67 | 40 | 6.0 | 0.0 | 0.00 | 0.00 | 0.00 | 46 | 1015.1 |
| 20260503080901 | 67 | 40 | 6.0 | 0.0 | 0.00 | 0.00 | 0.00 | 46 | 1014.9 |
| 20260503080802 | 67 | 12 | 13.0 | 0.0 | 0.00 | 0.00 | 0.00 | 45 | 1015.1 |
| 20260503080701 | 67 | 12 | 13.0 | 0.0 | 0.00 | 0.00 | 0.00 | 45 | 1014.9 |
| 20260503080602 | 67 | 12 | 13.0 | 0.0 | 0.00 | 0.00 | 0.00 | 45 | 1014.9 |
| 20260503080502 | 67 | 357 | 10.0 | 0.0 | 0.00 | 0.00 | 0.00 | 46 | 1014.9 |
| 20260503080401 | 67 | 357 | 10.0 | 0.0 | 0.00 | 0.00 | 0.00 | 46 | 1014.9 |
| 20260503080302 | 66 | 32 | 6.0 | 0.0 | 0.00 | 0.00 | 0.00 | 45 | 1014.9 |
| 20260503080201 | 66 | 32 | 6.0 | 0.0 | 0.00 | 0.00 | 0.00 | 45 | 1014.9 |
| 20260503072902 | 65 | 25 | 10.0 | 0.0 | 0.00 | 0.00 | 0.00 | 45 | 1014.8 |
| 20260503072802 | 65 | 25 | 10.0 | 0.0 | 0.00 | 0.00 | 0.00 | 45 | 1014.7 |
| 20260503072701 | 65 | 20 | 11.0 | 0.0 | 0.00 | 0.00 | 0.00 | 45 | 1014.8 |
| 20260503072602 | 65 | 20 | 11.0 | 0.0 | 0.00 | 0.00 | 0.00 | 45 | 1014.7 |
| 20260503072501 | 65 | 20 | 11.0 | 0.0 | 0.00 | 0.00 | 0.00 | 45 | 1014.8 |
| 20260503072402 | 65 | 20 | 11.0 | 0.0 | 0.00 | 0.00 | 0.00 | 45 | 1014.8 |
| 20260503072301 | 65 | 20 | 11.0 | 0.0 | 0.00 | 0.00 | 0.00 | 45 | 1014.8 |
| 20260503072202 | 64 | 15 | 8.0 | 0.0 | 0.00 | 0.00 | 0.00 | 45 | 1014.8 |
| 20260503072102 | 64 | 15 | 8.0 | 0.0 | 0.00 | 0.00 | 0.00 | 45 | 1014.8 |
| 20260503072002 | 65 | 25 | 11.0 | 0.0 | 0.00 | 0.00 | 0.00 | 46 | 1014.8 |
| 20260503071902 | 65 | 25 | 11.0 | 0.0 | 0.00 | 0.00 | 0.00 | 46 | 1014.8 |
| 20260503071801 | 65 | 25 | 11.0 | 0.0 | 0.00 | 0.00 | 0.00 | 46 | 1014.7 |
| 20260503071702 | 65 | 7 | 13.0 | 0.0 | 0.00 | 0.00 | 0.00 | 46 | 1014.7 |
| 20260503071601 | 65 | 7 | 13.0 | 0.0 | 0.00 | 0.00 | 0.00 | 46 | 1014.7 |
| 20260503071502 | 64 | 5 | 7.0 | 0.0 | 0.00 | 0.00 | 0.00 | 46 | 1014.7 |
| 20260503071401 | 64 | 15 | 7.0 | 0.0 | 0.00 | 0.00 | 0.00 | 46 | 1014.6 |
| 20260503071302 | 64 | 15 | 7.0 | 0.0 | 0.00 | 0.00 | 0.00 | 46 | 1014.6 |
| 20260503071202 | 64 | 15 | 7.0 | 0.0 | 0.00 | 0.00 | 0.00 | 46 | 1014.7 |
| 20260503071101 | 65 | 27 | 8.0 | 0.0 | 0.00 | 0.00 | 0.00 | 47 | 1014.6 |
| 20260503071002 | 65 | 27 | 8.0 | 0.0 | 0.00 | 0.00 | 0.00 | 47 | 1014.6 |
| 20260503070901 | 65 | 27 | 6.0 | 0.0 | 0.00 | 0.00 | 0.00 | 46 | 1014.6 |
| 20260503070802 | 65 | 27 | 6.0 | 0.0 | 0.00 | 0.00 | 0.00 | 46 | 1014.6 |
| 20260503070702 | 65 | 27 | 8.0 | 0.0 | 0.00 | 0.00 | 0.00 | 46 | 1014.6 |
| 20260503070601 | 65 | 27 | 7.0 | 0.0 | 0.00 | 0.00 | 0.00 | 46 | 1014.7 |
| 20260503070502 | 65 | 27 | 7.0 | 0.0 | 0.00 | 0.00 | 0.00 | 46 | 1014.8 |
| 20260503070401 | 65 | 27 | 7.0 | 0.0 | 0.00 | 0.00 | 0.00 | 46 | 1014.8 |
| 20260503070302 | 65 | 27 | 7.0 | 0.0 | 0.00 | 0.00 | 0.00 | 46 | 1014.8 |
| 20260503070201 | 65 | 27 | 7.0 | 0.0 | 0.00 | 0.00 | 0.00 | 46 | 1014.7 |
| 20260503060301 | 61 | 25 | 5.0 | 0.0 | 0.00 | 0.00 | 0.00 | 51 | 1014.6 |
| 20260503060202 | 61 | 25 | 5.0 | 0.0 | 0.00 | 0.00 | 0.00 | 51 | 1014.6 |
| 20260503055102 | 60 | 35 | 6.0 | 0.0 | 0.00 | 0.00 | 0.00 | 53 | 1014.6 |
| 20260503055002 | 60 | 35 | 6.0 | 0.0 | 0.00 | 0.00 | 0.00 | 53 | 1014.6 |
| 20260503054901 | 60 | 35 | 6.0 | 0.0 | 0.00 | 0.00 | 0.00 | 53 | 1014.6 |
| 20260503054802 | 60 | 20 | 4.0 | 0.0 | 0.00 | 0.00 | 0.00 | 55 | 1014.6 |
| 20260503054701 | 60 | 20 | 4.0 | 0.0 | 0.00 | 0.00 | 0.00 | 55 | 1014.6 |
| 20260503054602 | 60 | 20 | 4.0 | 0.0 | 0.00 | 0.00 | 0.00 | 55 | 1014.6 |
| 20260503054501 | 60 | 22 | 4.0 | 0.0 | 0.00 | 0.00 | 0.00 | 55 | 1014.6 |
| 20260503054402 | 60 | 22 | 4.0 | 0.0 | 0.00 | 0.00 | 0.00 | 55 | 1014.6 |
| 20260503054302 | 60 | 25 | 5.0 | 0.0 | 0.00 | 0.00 | 0.00 | 54 | 1014.6 |
| 20260503054201 | 60 | 25 | 5.0 | 0.0 | 0.00 | 0.00 | 0.00 | 54 | 1014.6 |
| 20260503054102 | 60 | 25 | 5.0 | 0.0 | 0.00 | 0.00 | 0.00 | 54 | 1014.6 |
| 20260503054001 | 60 | 25 | 5.0 | 0.0 | 0.00 | 0.00 | 0.00 | 54 | 1014.6 |
| 20260503053902 | 60 | 25 | 5.0 | 0.0 | 0.00 | 0.00 | 0.00 | 54 | 1014.6 |
| 20260503053801 | 60 | 25 | 5.0 | 0.0 | 0.00 | 0.00 | 0.00 | 54 | 1014.6 |
| 20260503053702 | 60 | 35 | 7.0 | 0.0 | 0.00 | 0.00 | 0.00 | 57 | 1014.6 |
| 20260503053602 | 60 | 35 | 7.0 | 0.0 | 0.00 | 0.00 | 0.00 | 57 | 1014.6 |
| 20260503053502 | 60 | 55 | 6.0 | 0.0 | 0.00 | 0.00 | 0.00 | 56 | 1014.6 |
| 20260503053402 | 60 | 55 | 6.0 | 0.0 | 0.00 | 0.00 | 0.00 | 56 | 1014.6 |
| 20260503053301 | 60 | 55 | 6.0 | 0.0 | 0.00 | 0.00 | 0.00 | 56 | 1014.6 |
| 20260503053202 | 59 | 45 | 5.0 | 0.0 | 0.00 | 0.00 | 0.00 | 57 | 1014.6 |
| 20260503053101 | 59 | 45 | 5.0 | 0.0 | 0.00 | 0.00 | 0.00 | 57 | 1014.5 |
| 20260503053002 | 59 | 27 | 4.0 | 0.0 | 0.00 | 0.00 | 0.00 | 57 | 1014.6 |
| 20260503052901 | 59 | 27 | 4.0 | 0.0 | 0.00 | 0.00 | 0.00 | 57 | 1014.6 |
| 20260503052802 | 59 | 27 | 4.0 | 0.0 | 0.00 | 0.00 | 0.00 | 57 | 1014.6 |
| 20260503052702 | 57 | 37 | 4.0 | 0.0 | 0.00 | 0.00 | 0.00 | 59 | 1014.6 |
| 20260503052601 | 57 | 37 | 4.0 | 0.0 | 0.00 | 0.00 | 0.00 | 59 | 1014.6 |
| 20260503052502 | 57 | 37 | 4.0 | 0.0 | 0.00 | 0.00 | 0.00 | 59 | 1014.6 |
| 20260503052401 | 57 | 37 | 4.0 | 0.0 | 0.00 | 0.00 | 0.00 | 59 | 1014.6 |
| 20260503052302 | 57 | 37 | 4.0 | 0.0 | 0.00 | 0.00 | 0.00 | 59 | 1014.6 |
| 20260503052201 | 57 | 35 | 3.0 | 0.0 | 0.00 | 0.00 | 0.00 | 59 | 1014.7 |
| 20260503052102 | 57 | 35 | 3.0 | 0.0 | 0.00 | 0.00 | 0.00 | 59 | 1014.7 |
| 20260503052002 | 57 | 35 | 3.0 | 0.0 | 0.00 | 0.00 | 0.00 | 59 | 1014.6 |
| 20260503051901 | 56 | 30 | 3.0 | 0.0 | 0.00 | 0.00 | 0.00 | 60 | 1014.7 |
| 20260503051802 | 56 | 30 | 3.0 | 0.0 | 0.00 | 0.00 | 0.00 | 60 | 1014.7 |
| 20260503051701 | 55 | 40 | 0.0 | 0.0 | 0.00 | 0.00 | 0.00 | 63 | 1014.7 |